| time (UTC) | temp F | wind direction | speed knots | gust knots | rain 1hr in | rain 24hr in | rain mn in | humidity % | barometer mb |
| 20260507192757 | 63 | 99 | 2.6 | 10.4 | 0.00 | 0.12 | 0.00 | 33 | 1007.0 |
| 20260507192700 | 63 | 82 | 2.6 | 10.4 | 0.00 | 0.12 | 0.00 | 33 | 1007.0 |
| 20260507192605 | 63 | 77 | 3.5 | 10.4 | 0.00 | 0.12 | 0.00 | 34 | 1007.1 |
| 20260507192507 | 63 | 74 | 4.3 | 10.4 | 0.00 | 0.12 | 0.00 | 33 | 1007.0 |
| 20260507192410 | 63 | 145 | 4.3 | 10.4 | 0.00 | 0.12 | 0.00 | 33 | 1007.0 |
| 20260507192314 | 63 | 79 | 4.3 | 10.4 | 0.00 | 0.12 | 0.00 | 34 | 1007.0 |
| 20260507192200 | 63 | 204 | 3.5 | 9.6 | 0.00 | 0.12 | 0.00 | 34 | 1007.0 |
| 20260507192105 | 63 | 311 | 3.5 | 9.6 | 0.00 | 0.12 | 0.00 | 34 | 1007.0 |
| 20260507192007 | 63 | 124 | 2.6 | 9.6 | 0.00 | 0.12 | 0.00 | 35 | 1007.0 |
| 20260507191910 | 63 | 74 | 2.6 | 9.6 | 0.00 | 0.12 | 0.00 | 34 | 1007.0 |
| 20260507191814 | 63 | 100 | 2.6 | 9.6 | 0.00 | 0.12 | 0.00 | 33 | 1007.0 |
| 20260507191657 | 63 | 160 | 2.6 | 9.6 | 0.00 | 0.12 | 0.00 | 33 | 1007.0 |
| 20260507191625 | 63 | 105 | 2.6 | 8.7 | 0.00 | 0.12 | 0.00 | 34 | 1006.9 |
| 20260507191527 | 63 | 89 | 2.6 | 8.7 | 0.00 | 0.12 | 0.00 | 34 | 1007.0 |
| 20260507191409 | 63 | 79 | 2.6 | 8.7 | 0.00 | 0.12 | 0.00 | 34 | 1007.0 |
| 20260507191313 | 63 | 147 | 1.7 | 8.7 | 0.00 | 0.12 | 0.00 | 34 | 1007.0 |
| 20260507191156 | 63 | 81 | 0.9 | 7.8 | 0.00 | 0.12 | 0.00 | 34 | 1007.1 |
| 20260507191100 | 63 | 83 | 2.6 | 8.7 | 0.00 | 0.12 | 0.00 | 32 | 1007.0 |
| 20260507191002 | 63 | 96 | 1.7 | 8.7 | 0.00 | 0.12 | 0.00 | 34 | 1007.0 |
| 20260507190910 | 63 | 132 | 0.9 | 8.7 | 0.00 | 0.12 | 0.00 | 35 | 1007.0 |
| 20260507190813 | 63 | 106 | 2.6 | 8.7 | 0.00 | 0.12 | 0.00 | 34 | 1007.0 |
| 20260507190657 | 63 | 115 | 4.3 | 8.7 | 0.00 | 0.12 | 0.00 | 33 | 1007.1 |
| 20260507190600 | 63 | 75 | 3.5 | 8.7 | 0.00 | 0.12 | 0.00 | 34 | 1007.0 |
| 20260507190503 | 63 | 89 | 3.5 | 8.7 | 0.00 | 0.12 | 0.00 | 33 | 1007.0 |
| 20260507190426 | 63 | 96 | 3.5 | 8.7 | 0.00 | 0.12 | 0.00 | 33 | 1007.0 |
| 20260507190313 | 63 | 83 | 3.5 | 10.4 | 0.00 | 0.12 | 0.00 | 35 | 1007.1 |
| 20260507190156 | 63 | 122 | 3.5 | 8.7 | 0.00 | 0.12 | 0.00 | 33 | 1007.0 |
| 20260507190132 | 63 | 72 | 3.5 | 8.7 | 0.00 | 0.12 | 0.00 | 33 | 1007.0 |
| 20260507190017 | 63 | 201 | 3.5 | 8.7 | 0.00 | 0.12 | 0.00 | 32 | 1007.1 |
| 20260507185859 | 63 | 80 | 1.7 | 8.7 | 0.00 | 0.12 | 0.00 | 33 | 1007.1 |
| 20260507185803 | 63 | 89 | 1.7 | 8.7 | 0.00 | 0.12 | 0.00 | 32 | 1007.1 |
| 20260507185706 | 63 | 125 | 0.9 | 8.7 | 0.00 | 0.12 | 0.00 | 34 | 1007.1 |
| 20260507185634 | 63 | 22 | 2.6 | 8.7 | 0.00 | 0.12 | 0.00 | 33 | 1007.2 |
| 20260507185455 | 63 | 132 | 3.5 | 8.7 | 0.00 | 0.12 | 0.00 | 34 | 1007.2 |
| 20260507185359 | 63 | 113 | 2.6 | 8.7 | 0.00 | 0.12 | 0.00 | 35 | 1007.2 |
| 20260507185323 | 63 | 145 | 2.6 | 11.3 | 0.00 | 0.12 | 0.00 | 35 | 1007.2 |
| 20260507185206 | 63 | 99 | 0.9 | 11.3 | 0.00 | 0.12 | 0.00 | 36 | 1007.2 |
| 20260507185109 | 63 | 91 | 0.9 | 11.3 | 0.00 | 0.12 | 0.00 | 35 | 1007.2 |
| 20260507184956 | 63 | 123 | 1.7 | 11.3 | 0.00 | 0.12 | 0.00 | 36 | 1007.2 |
| 20260507184859 | 63 | 105 | 2.6 | 11.3 | 0.00 | 0.12 | 0.00 | 35 | 1007.2 |
| 20260507184803 | 63 | 155 | 2.6 | 11.3 | 0.00 | 0.12 | 0.00 | 35 | 1007.3 |
| 20260507184706 | 63 | 148 | 2.6 | 11.3 | 0.00 | 0.12 | 0.00 | 37 | 1007.3 |
| 20260507184611 | 63 | 123 | 2.6 | 11.3 | 0.00 | 0.12 | 0.00 | 35 | 1007.3 |
| 20260507184513 | 63 | 113 | 3.5 | 11.3 | 0.00 | 0.12 | 0.00 | 35 | 1007.3 |
| 20260507184401 | 63 | 99 | 2.6 | 7.8 | 0.00 | 0.12 | 0.00 | 35 | 1007.3 |
| 20260507184304 | 63 | 84 | 1.7 | 8.7 | 0.00 | 0.12 | 0.00 | 36 | 1007.3 |
| 20260507184208 | 63 | 134 | 0.9 | 8.7 | 0.00 | 0.12 | 0.00 | 36 | 1007.4 |
| 20260507184111 | 63 | 124 | 0.0 | 8.7 | 0.00 | 0.12 | 0.00 | 37 | 1007.3 |
| 20260507184013 | 63 | 49 | 0.0 | 8.7 | 0.00 | 0.12 | 0.00 | 37 | 1007.3 |
| 20260507183916 | 63 | 203 | 0.0 | 8.7 | 0.00 | 0.12 | 0.00 | 36 | 1007.3 |
| 20260507183759 | 63 | 37 | 0.9 | 8.7 | 0.00 | 0.12 | 0.00 | 38 | 1007.4 |
| 20260507183706 | 62 | 75 | 1.7 | 8.7 | 0.00 | 0.12 | 0.00 | 36 | 1007.4 |
| 20260507183611 | 62 | 141 | 3.5 | 8.7 | 0.00 | 0.12 | 0.00 | 35 | 1007.4 |
| 20260507183513 | 63 | 129 | 3.5 | 8.7 | 0.00 | 0.12 | 0.00 | 35 | 1007.4 |
| 20260507183356 | 63 | 186 | 2.6 | 7.0 | 0.00 | 0.12 | 0.00 | 36 | 1007.4 |
| 20260507183320 | 63 | 157 | 1.7 | 7.0 | 0.00 | 0.12 | 0.00 | 37 | 1007.4 |
| 20260507183223 | 63 | 64 | 0.9 | 7.0 | 0.00 | 0.12 | 0.00 | 38 | 1007.4 |
| 20260507183126 | 63 | 113 | 0.9 | 7.0 | 0.00 | 0.12 | 0.00 | 37 | 1007.4 |
| 20260507183027 | 63 | 214 | 0.9 | 7.0 | 0.00 | 0.12 | 0.00 | 37 | 1007.4 |
| 20260507182914 | 63 | 77 | 1.7 | 7.0 | 0.00 | 0.12 | 0.00 | 36 | 1007.4 |
| 20260507182757 | 63 | 152 | 2.6 | 7.0 | 0.00 | 0.12 | 0.00 | 37 | 1007.5 |
| 20260507182701 | 63 | 160 | 1.7 | 6.1 | 0.00 | 0.12 | 0.00 | 37 | 1007.6 |
| 20260507182626 | 63 | 108 | 0.9 | 6.1 | 0.00 | 0.12 | 0.00 | 38 | 1007.7 |
| 20260507182527 | 63 | 103 | 1.7 | 6.1 | 0.00 | 0.12 | 0.00 | 36 | 1007.7 |
| 20260507182410 | 63 | 136 | 2.6 | 6.1 | 0.00 | 0.12 | 0.00 | 37 | 1007.6 |
| 20260507182257 | 62 | 112 | 1.7 | 6.1 | 0.00 | 0.12 | 0.00 | 38 | 1007.5 |
| 20260507182201 | 62 | 42 | 2.6 | 6.1 | 0.00 | 0.12 | 0.00 | 37 | 1007.6 |
| 20260507182104 | 62 | 100 | 1.7 | 6.1 | 0.00 | 0.12 | 0.00 | 38 | 1007.7 |
| 20260507182007 | 62 | 108 | 0.9 | 6.1 | 0.00 | 0.12 | 0.00 | 37 | 1007.5 |
| 20260507181910 | 62 | 87 | 0.9 | 6.1 | 0.00 | 0.12 | 0.00 | 38 | 1007.5 |
| 20260507181813 | 62 | 40 | 0.0 | 6.1 | 0.00 | 0.12 | 0.00 | 37 | 1007.5 |
| 20260507181701 | 62 | 81 | 1.7 | 6.1 | 0.00 | 0.12 | 0.00 | 36 | 1007.5 |
| 20260507181606 | 63 | 143 | 2.6 | 7.8 | 0.00 | 0.12 | 0.00 | 36 | 1007.5 |
| 20260507181527 | 63 | 126 | 2.6 | 9.6 | 0.00 | 0.12 | 0.00 | 39 | 1007.5 |
| 20260507181430 | 63 | 103 | 1.7 | 9.6 | 0.00 | 0.12 | 0.00 | 38 | 1007.6 |
| 20260507181313 | 63 | 41 | 1.7 | 9.6 | 0.00 | 0.12 | 0.00 | 40 | 1007.6 |
| 20260507181156 | 62 | 146 | 1.7 | 9.6 | 0.00 | 0.12 | 0.00 | 40 | 1007.6 |
| 20260507181100 | 62 | 108 | 0.9 | 9.6 | 0.00 | 0.12 | 0.00 | 39 | 1007.6 |
| 20260507181022 | 62 | 179 | 0.9 | 9.6 | 0.00 | 0.12 | 0.00 | 41 | 1007.7 |
| 20260507180909 | 62 | 70 | 0.9 | 9.6 | 0.00 | 0.12 | 0.00 | 40 | 1007.7 |
| 20260507180812 | 62 | 117 | 4.3 | 9.6 | 0.00 | 0.12 | 0.00 | 40 | 1007.7 |
| 20260507180655 | 62 | 122 | 4.3 | 9.6 | 0.00 | 0.12 | 0.00 | 40 | 1007.8 |
| 20260507180600 | 62 | 59 | 2.6 | 9.6 | 0.00 | 0.12 | 0.00 | 42 | 1007.7 |
| 20260507180503 | 62 | 131 | 2.6 | 9.6 | 0.00 | 0.12 | 0.00 | 40 | 1007.7 |
| 20260507180405 | 62 | 170 | 0.9 | 9.6 | 0.00 | 0.12 | 0.00 | 42 | 1007.7 |
| 20260507180313 | 62 | 12 | 0.9 | 9.6 | 0.00 | 0.12 | 0.00 | 41 | 1007.7 |
| 20260507180156 | 61 | 111 | 3.5 | 9.6 | 0.00 | 0.12 | 0.00 | 41 | 1007.7 |
| 20260507180131 | 61 | 67 | 4.3 | 10.4 | 0.00 | 0.12 | 0.00 | 40 | 1007.7 |
| 20260507180015 | 61 | 160 | 5.2 | 10.4 | 0.00 | 0.12 | 0.00 | 39 | 1007.8 |
| 20260507175858 | 61 | 245 | 3.5 | 10.4 | 0.00 | 0.12 | 0.00 | 40 | 1007.8 |
| 20260507175801 | 61 | 134 | 2.6 | 10.4 | 0.00 | 0.12 | 0.00 | 39 | 1007.8 |
| 20260507175709 | 61 | 186 | 5.2 | 10.4 | 0.00 | 0.12 | 0.00 | 41 | 1007.8 |
| 20260507175612 | 61 | 108 | 5.2 | 10.4 | 0.00 | 0.12 | 0.00 | 40 | 1007.8 |
| 20260507175535 | 61 | 130 | 4.3 | 10.4 | 0.00 | 0.12 | 0.00 | 40 | 1007.9 |
| 20260507175357 | 61 | 155 | 4.3 | 10.4 | 0.00 | 0.12 | 0.00 | 40 | 1007.8 |
| 20260507175301 | 61 | 131 | 4.3 | 11.3 | 0.00 | 0.12 | 0.00 | 40 | 1007.8 |
| 20260507175204 | 61 | 136 | 3.5 | 11.3 | 0.00 | 0.12 | 0.00 | 39 | 1007.9 |
| 20260507175108 | 61 | 145 | 2.6 | 11.3 | 0.00 | 0.12 | 0.00 | 40 | 1007.9 |
| 20260507174954 | 61 | 94 | 4.3 | 11.3 | 0.00 | 0.12 | 0.00 | 39 | 1007.9 |
| 20260507174858 | 61 | 138 | 3.5 | 11.3 | 0.00 | 0.12 | 0.00 | 40 | 1007.9 |
| 20260507174801 | 61 | 111 | 2.6 | 11.3 | 0.00 | 0.12 | 0.00 | 40 | 1007.9 |
| 20260507174704 | 61 | 93 | 2.6 | 11.3 | 0.00 | 0.12 | 0.00 | 40 | 1007.8 |
| 20260507174609 | 61 | 174 | 4.3 | 11.3 | 0.00 | 0.12 | 0.00 | 39 | 1007.9 |
| 20260507174456 | 62 | 87 | 5.2 | 11.3 | 0.00 | 0.12 | 0.00 | 39 | 1007.8 |
| 20260507174358 | 62 | 113 | 2.6 | 9.6 | 0.00 | 0.12 | 0.00 | 41 | 1007.8 |
| 20260507174302 | 62 | 120 | 3.5 | 9.6 | 0.00 | 0.12 | 0.00 | 40 | 1007.8 |
| 20260507174206 | 62 | 67 | 3.5 | 9.6 | 0.00 | 0.12 | 0.00 | 39 | 1007.8 |
| 20260507174109 | 62 | 164 | 3.5 | 9.6 | 0.00 | 0.12 | 0.00 | 41 | 1007.8 |
| 20260507174011 | 62 | 131 | 4.3 | 8.7 | 0.00 | 0.12 | 0.00 | 40 | 1007.8 |
| 20260507173858 | 62 | 128 | 2.6 | 8.7 | 0.00 | 0.12 | 0.00 | 40 | 1007.7 |
| 20260507173802 | 62 | 110 | 1.7 | 7.8 | 0.00 | 0.12 | 0.00 | 41 | 1007.8 |
| 20260507173706 | 62 | 83 | 1.7 | 7.8 | 0.00 | 0.12 | 0.00 | 41 | 1007.9 |
| 20260507173609 | 62 | 89 | 2.6 | 7.8 | 0.00 | 0.12 | 0.00 | 41 | 1007.9 |
| 20260507173512 | 62 | 76 | 2.6 | 7.8 | 0.00 | 0.12 | 0.00 | 41 | 1007.9 |
| 20260507173355 | 62 | 101 | 1.7 | 9.6 | 0.00 | 0.12 | 0.00 | 43 | 1007.9 |
| 20260507173302 | 61 | 70 | 2.6 | 9.6 | 0.00 | 0.12 | 0.00 | 42 | 1007.9 |
| 20260507173206 | 61 | 96 | 2.6 | 9.6 | 0.00 | 0.12 | 0.00 | 41 | 1007.9 |
| 20260507173110 | 61 | 81 | 3.5 | 9.6 | 0.00 | 0.12 | 0.00 | 40 | 1007.9 |
| 20260507173032 | 61 | 140 | 3.5 | 9.6 | 0.00 | 0.12 | 0.00 | 39 | 1007.8 |
| 20260507172854 | 62 | 42 | 3.5 | 9.6 | 0.00 | 0.12 | 0.00 | 38 | 1007.8 |
| 20260507172758 | 62 | 51 | 2.6 | 9.6 | 0.00 | 0.12 | 0.00 | 38 | 1007.9 |
| 20260507172701 | 62 | 86 | 2.6 | 9.6 | 0.00 | 0.12 | 0.00 | 39 | 1007.9 |
| 20260507172610 | 62 | 98 | 4.3 | 9.6 | 0.00 | 0.12 | 0.00 | 40 | 1007.9 |
| 20260507172513 | 62 | 89 | 3.5 | 10.4 | 0.00 | 0.12 | 0.00 | 37 | 1007.9 |
| 20260507172355 | 62 | 190 | 1.7 | 7.8 | 0.00 | 0.12 | 0.00 | 41 | 1007.9 |
| 20260507172258 | 62 | 97 | 0.9 | 7.8 | 0.00 | 0.12 | 0.00 | 42 | 1007.8 |
| 20260507172202 | 62 | 68 | 0.9 | 7.8 | 0.00 | 0.12 | 0.00 | 42 | 1007.9 |
| 20260507172106 | 62 | 79 | 1.7 | 10.4 | 0.00 | 0.12 | 0.00 | 42 | 1007.9 |
| 20260507172012 | 62 | 136 | 1.7 | 10.4 | 0.00 | 0.12 | 0.00 | 42 | 1007.9 |
| 20260507171855 | 62 | 89 | 2.6 | 10.4 | 0.00 | 0.12 | 0.00 | 40 | 1007.9 |
| 20260507171759 | 62 | 132 | 1.7 | 10.4 | 0.00 | 0.12 | 0.00 | 39 | 1007.9 |
| 20260507171723 | 62 | 105 | 1.7 | 10.4 | 0.00 | 0.12 | 0.00 | 41 | 1008.0 |
| 20260507171606 | 61 | 71 | 0.9 | 10.4 | 0.00 | 0.12 | 0.00 | 41 | 1008.0 |
| 20260507171509 | 61 | 309 | 0.9 | 10.4 | 0.00 | 0.12 | 0.00 | 40 | 1008.0 |
| 20260507171356 | 61 | 94 | 3.5 | 10.4 | 0.00 | 0.12 | 0.00 | 40 | 1008.1 |
| 20260507171320 | 61 | 103 | 3.5 | 12.2 | 0.00 | 0.12 | 0.00 | 39 | 1008.1 |
| 20260507171202 | 61 | 103 | 2.6 | 9.6 | 0.00 | 0.12 | 0.00 | 41 | 1008.1 |
| 20260507171106 | 61 | 74 | 3.5 | 9.6 | 0.00 | 0.12 | 0.00 | 41 | 1008.1 |
| 20260507171008 | 61 | 54 | 3.5 | 9.6 | 0.00 | 0.12 | 0.00 | 41 | 1008.1 |
| 20260507170911 | 61 | 41 | 2.6 | 9.6 | 0.00 | 0.12 | 0.00 | 41 | 1008.0 |
| 20260507170758 | 61 | 60 | 1.7 | 9.6 | 0.00 | 0.12 | 0.00 | 41 | 1008.0 |
| 20260507170702 | 61 | 18 | 3.5 | 9.6 | 0.00 | 0.12 | 0.00 | 40 | 1008.0 |
| 20260507170606 | 61 | 148 | 4.3 | 8.7 | 0.00 | 0.12 | 0.00 | 41 | 1008.0 |
| 20260507170509 | 61 | 117 | 2.6 | 8.7 | 0.00 | 0.12 | 0.00 | 40 | 1008.1 |
| 20260507170412 | 61 | 99 | 1.7 | 8.7 | 0.00 | 0.12 | 0.00 | 40 | 1008.0 |
| 20260507170255 | 61 | 76 | 2.6 | 8.7 | 0.00 | 0.12 | 0.00 | 40 | 1008.1 |
| 20260507170219 | 61 | 101 | 2.6 | 8.7 | 0.00 | 0.12 | 0.00 | 39 | 1008.1 |
| 20260507170137 | 61 | 152 | 2.6 | 8.7 | 0.00 | 0.12 | 0.00 | 39 | 1008.1 |
| 20260507170001 | 61 | 96 | 2.6 | 8.7 | 0.00 | 0.12 | 0.00 | 40 | 1008.2 |
| 20260507165904 | 61 | 174 | 3.5 | 8.7 | 0.00 | 0.12 | 0.00 | 40 | 1008.3 |
| 20260507165808 | 61 | 99 | 3.5 | 8.7 | 0.00 | 0.12 | 0.00 | 40 | 1008.2 |
| 20260507165711 | 61 | 132 | 3.5 | 8.7 | 0.00 | 0.12 | 0.00 | 41 | 1008.2 |
| 20260507165614 | 61 | 108 | 1.7 | 8.7 | 0.00 | 0.12 | 0.00 | 40 | 1008.2 |
| 20260507165501 | 61 | 98 | 2.6 | 8.7 | 0.00 | 0.12 | 0.00 | 41 | 1008.2 |
| 20260507165404 | 61 | 51 | 2.6 | 8.7 | 0.00 | 0.12 | 0.00 | 40 | 1008.1 |
| 20260507165308 | 61 | 74 | 2.6 | 9.6 | 0.00 | 0.12 | 0.00 | 42 | 1008.2 |
| 20260507165211 | 61 | 77 | 1.7 | 9.6 | 0.00 | 0.12 | 0.00 | 41 | 1008.2 |
| 20260507165136 | 61 | 79 | 1.7 | 9.6 | 0.00 | 0.12 | 0.00 | 41 | 1008.2 |
| 20260507164957 | 61 | 209 | 1.7 | 9.6 | 0.00 | 0.12 | 0.00 | 42 | 1008.3 |
| 20260507164901 | 61 | 97 | 1.7 | 9.6 | 0.00 | 0.12 | 0.00 | 40 | 1008.3 |
| 20260507164809 | 61 | 99 | 3.5 | 9.6 | 0.00 | 0.12 | 0.00 | 41 | 1008.3 |
| 20260507164712 | 61 | 67 | 4.3 | 9.6 | 0.00 | 0.12 | 0.00 | 41 | 1008.3 |
| 20260507164555 | 61 | 149 | 4.3 | 9.6 | 0.00 | 0.12 | 0.00 | 40 | 1008.4 |
| 20260507164458 | 61 | 106 | 1.7 | 9.6 | 0.00 | 0.12 | 0.00 | 43 | 1008.4 |
| 20260507164401 | 61 | 97 | 0.9 | 7.8 | 0.00 | 0.12 | 0.00 | 42 | 1008.3 |
| 20260507164305 | 61 | 18 | 2.6 | 7.8 | 0.00 | 0.12 | 0.00 | 43 | 1008.4 |
| 20260507164212 | 61 | 91 | 2.6 | 7.8 | 0.00 | 0.12 | 0.00 | 42 | 1008.3 |
| 20260507164117 | 61 | 101 | 1.7 | 7.0 | 0.00 | 0.12 | 0.00 | 40 | 1008.3 |
| 20260507163958 | 61 | 108 | 1.7 | 7.0 | 0.00 | 0.12 | 0.00 | 41 | 1008.3 |
| 20260507163922 | 61 | 37 | 1.7 | 7.0 | 0.00 | 0.12 | 0.00 | 41 | 1008.3 |
| 20260507163826 | 61 | 98 | 2.6 | 8.7 | 0.00 | 0.12 | 0.00 | 42 | 1008.4 |
| 20260507163708 | 61 | 67 | 2.6 | 10.4 | 0.00 | 0.12 | 0.00 | 40 | 1008.4 |
| 20260507163612 | 61 | 81 | 2.6 | 10.4 | 0.00 | 0.12 | 0.00 | 41 | 1008.4 |
| 20260507163458 | 61 | 125 | 2.6 | 10.4 | 0.00 | 0.12 | 0.00 | 41 | 1008.5 |
| 20260507163402 | 61 | 39 | 1.7 | 10.4 | 0.00 | 0.12 | 0.00 | 41 | 1008.5 |
| 20260507163305 | 61 | 74 | 2.6 | 10.4 | 0.00 | 0.12 | 0.00 | 42 | 1008.5 |
| 20260507163228 | 61 | 92 | 3.5 | 10.4 | 0.00 | 0.12 | 0.00 | 41 | 1008.5 |
| 20260507163112 | 61 | 51 | 4.3 | 10.4 | 0.00 | 0.12 | 0.00 | 40 | 1008.4 |
| 20260507162954 | 61 | 106 | 3.5 | 10.4 | 0.00 | 0.12 | 0.00 | 42 | 1008.3 |
| 20260507162902 | 61 | 62 | 0.9 | 6.1 | 0.00 | 0.12 | 0.00 | 45 | 1008.3 |
| 20260507162805 | 61 | 106 | 0.9 | 9.6 | 0.00 | 0.12 | 0.00 | 44 | 1008.4 |
| 20260507162729 | 61 | 82 | 1.7 | 9.6 | 0.00 | 0.12 | 0.00 | 43 | 1008.4 |
| 20260507162611 | 61 | 141 | 2.6 | 9.6 | 0.00 | 0.12 | 0.00 | 43 | 1008.4 |
| 20260507162514 | 60 | 70 | 1.7 | 9.6 | 0.00 | 0.12 | 0.00 | 44 | 1008.4 |
| 20260507162357 | 60 | 69 | 1.7 | 9.6 | 0.00 | 0.12 | 0.00 | 44 | 1008.4 |
| 20260507162301 | 60 | 44 | 1.7 | 9.6 | 0.00 | 0.12 | 0.00 | 44 | 1008.5 |
| 20260507162209 | 60 | 132 | 1.7 | 9.6 | 0.00 | 0.12 | 0.00 | 43 | 1008.5 |
| 20260507162112 | 60 | 136 | 2.6 | 9.6 | 0.00 | 0.12 | 0.00 | 43 | 1008.6 |
| 20260507161954 | 60 | 108 | 3.5 | 10.4 | 0.00 | 0.12 | 0.00 | 46 | 1008.6 |
| 20260507161857 | 60 | 128 | 4.3 | 8.7 | 0.00 | 0.12 | 0.00 | 45 | 1008.5 |
| 20260507161801 | 60 | 113 | 3.5 | 8.7 | 0.00 | 0.12 | 0.00 | 45 | 1008.6 |
| 20260507161725 | 61 | 76 | 3.5 | 8.7 | 0.00 | 0.12 | 0.00 | 46 | 1008.5 |
| 20260507161613 | 61 | 108 | 3.5 | 8.7 | 0.00 | 0.12 | 0.00 | 44 | 1008.6 |
| 20260507161455 | 61 | 113 | 3.5 | 8.7 | 0.00 | 0.12 | 0.00 | 46 | 1008.6 |
| 20260507161358 | 61 | 83 | 2.6 | 10.4 | 0.00 | 0.12 | 0.00 | 50 | 1008.5 |
| 20260507161302 | 61 | 13 | 0.9 | 7.0 | 0.00 | 0.12 | 0.00 | 52 | 1008.6 |
| 20260507161205 | 61 | 68 | 0.9 | 6.1 | 0.00 | 0.12 | 0.00 | 52 | 1008.5 |
| 20260507161129 | 61 | 91 | 0.9 | 9.6 | 0.00 | 0.12 | 0.00 | 52 | 1008.5 |
| 20260507160954 | 61 | 69 | 0.9 | 9.6 | 0.00 | 0.12 | 0.00 | 54 | 1008.5 |
| 20260507160858 | 61 | 70 | 1.7 | 9.6 | 0.00 | 0.12 | 0.00 | 53 | 1008.5 |
| 20260507160801 | 61 | 87 | 1.7 | 9.6 | 0.00 | 0.12 | 0.00 | 53 | 1008.5 |
| 20260507160705 | 61 | 94 | 1.7 | 9.6 | 0.00 | 0.12 | 0.00 | 53 | 1008.5 |
| 20260507160609 | 60 | 23 | 2.6 | 9.6 | 0.00 | 0.12 | 0.00 | 53 | 1008.6 |
| 20260507160512 | 60 | 120 | 3.5 | 9.6 | 0.00 | 0.12 | 0.00 | 53 | 1008.6 |
| 20260507160359 | 60 | 108 | 4.3 | 9.6 | 0.00 | 0.12 | 0.00 | 53 | 1008.6 |
| 20260507160303 | 60 | 96 | 3.5 | 9.6 | 0.00 | 0.12 | 0.00 | 53 | 1008.6 |
| 20260507160206 | 60 | 91 | 3.5 | 9.6 | 0.00 | 0.12 | 0.00 | 54 | 1008.6 |
| 20260507160140 | 60 | 108 | 1.7 | 8.7 | 0.00 | 0.12 | 0.00 | 54 | 1008.6 |
| 20260507160005 | 60 | 152 | 0.9 | 9.6 | 0.00 | 0.12 | 0.00 | 56 | 1008.7 |
| 20260507155908 | 60 | 83 | 0.0 | 9.6 | 0.00 | 0.12 | 0.00 | 55 | 1008.7 |
| 20260507155812 | 60 | 46 | 0.0 | 9.6 | 0.00 | 0.12 | 0.00 | 55 | 1008.6 |
| 20260507155659 | 60 | 100 | 2.6 | 9.6 | 0.00 | 0.12 | 0.00 | 54 | 1008.6 |
| 20260507155603 | 60 | 60 | 4.3 | 9.6 | 0.00 | 0.12 | 0.00 | 53 | 1008.6 |
| 20260507155526 | 60 | 129 | 3.5 | 9.6 | 0.00 | 0.12 | 0.00 | 55 | 1008.6 |
| 20260507155409 | 60 | 42 | 4.3 | 9.6 | 0.00 | 0.12 | 0.00 | 56 | 1008.7 |
| 20260507155312 | 60 | 117 | 3.5 | 9.6 | 0.00 | 0.12 | 0.00 | 55 | 1008.7 |
| 20260507155156 | 60 | 59 | 1.7 | 7.0 | 0.00 | 0.12 | 0.00 | 57 | 1008.7 |
| 20260507155103 | 60 | 89 | 1.7 | 6.1 | 0.00 | 0.12 | 0.00 | 55 | 1008.7 |
| 20260507155006 | 60 | 89 | 0.9 | 6.1 | 0.00 | 0.12 | 0.00 | 56 | 1008.7 |
| 20260507154909 | 60 | 104 | 0.0 | 6.1 | 0.00 | 0.12 | 0.00 | 56 | 1008.7 |
| 20260507154813 | 60 | 79 | 0.0 | 6.1 | 0.00 | 0.12 | 0.00 | 56 | 1008.7 |
| 20260507154656 | 60 | 81 | 0.9 | 6.1 | 0.00 | 0.12 | 0.00 | 57 | 1008.7 |
| 20260507154600 | 60 | 79 | 1.7 | 6.1 | 0.00 | 0.12 | 0.00 | 58 | 1008.7 |
| 20260507154506 | 59 | 82 | 1.7 | 6.1 | 0.00 | 0.12 | 0.00 | 57 | 1008.7 |
| 20260507154409 | 59 | 99 | 1.7 | 7.8 | 0.00 | 0.12 | 0.00 | 57 | 1008.7 |
| 20260507154333 | 59 | 47 | 1.7 | 9.6 | 0.00 | 0.12 | 0.00 | 57 | 1008.7 |
| 20260507154156 | 59 | 60 | 0.9 | 9.6 | 0.00 | 0.12 | 0.00 | 57 | 1008.8 |
| 20260507154120 | 59 | 83 | 1.7 | 9.6 | 0.00 | 0.12 | 0.00 | 59 | 1008.8 |
| 20260507154021 | 59 | 65 | 0.9 | 9.6 | 0.00 | 0.12 | 0.00 | 61 | 1008.8 |
| 20260507153903 | 58 | 23 | 0.9 | 9.6 | 0.00 | 0.12 | 0.00 | 62 | 1008.8 |
| 20260507153807 | 58 | 65 | 0.9 | 9.6 | 0.00 | 0.12 | 0.00 | 60 | 1008.8 |
| 20260507153654 | 58 | 86 | 2.6 | 9.6 | 0.00 | 0.12 | 0.00 | 59 | 1008.8 |
| 20260507153559 | 58 | 101 | 4.3 | 9.6 | 0.00 | 0.12 | 0.00 | 59 | 1008.9 |
| 20260507153501 | 58 | 184 | 3.5 | 9.6 | 0.00 | 0.12 | 0.00 | 59 | 1008.8 |
| 20260507153405 | 58 | 99 | 2.6 | 7.8 | 0.00 | 0.12 | 0.00 | 60 | 1008.9 |
| 20260507153329 | 58 | 104 | 4.3 | 7.8 | 0.00 | 0.12 | 0.00 | 59 | 1008.9 |
| 20260507153232 | 58 | 190 | 3.5 | 6.1 | 0.00 | 0.12 | 0.00 | 59 | 1008.9 |
| 20260507153058 | 58 | 132 | 4.3 | 6.1 | 0.00 | 0.12 | 0.00 | 59 | 1008.9 |
| 20260507153000 | 58 | 214 | 3.5 | 6.1 | 0.00 | 0.12 | 0.00 | 58 | 1009.0 |
| 20260507152924 | 58 | 97 | 3.5 | 6.1 | 0.00 | 0.12 | 0.00 | 57 | 1009.0 |
| 20260507152807 | 59 | 145 | 3.5 | 6.1 | 0.00 | 0.12 | 0.00 | 57 | 1008.9 |
| 20260507152710 | 59 | 176 | 2.6 | 6.1 | 0.00 | 0.12 | 0.00 | 57 | 1009.0 |
| 20260507152634 | 59 | 81 | 1.7 | 6.1 | 0.00 | 0.12 | 0.00 | 59 | 1009.0 |
| 20260507152454 | 59 | 111 | 1.7 | 6.1 | 0.00 | 0.12 | 0.00 | 59 | 1009.1 |
| 20260507152402 | 59 | 141 | 0.9 | 6.1 | 0.00 | 0.12 | 0.00 | 61 | 1009.0 |
| 20260507152306 | 58 | 93 | 1.7 | 6.1 | 0.00 | 0.12 | 0.00 | 60 | 1008.9 |
| 20260507152209 | 58 | 113 | 2.6 | 7.0 | 0.00 | 0.12 | 0.00 | 62 | 1009.0 |
| 20260507152113 | 58 | 103 | 2.6 | 5.2 | 0.00 | 0.12 | 0.00 | 63 | 1008.9 |
| 20260507151955 | 58 | 159 | 0.9 | 6.1 | 0.00 | 0.12 | 0.00 | 63 | 1009.0 |
| 20260507151859 | 58 | 127 | 0.0 | 6.1 | 0.00 | 0.12 | 0.00 | 64 | 1009.0 |
| 20260507151823 | 57 | 87 | 0.0 | 6.1 | 0.00 | 0.12 | 0.00 | 65 | 1008.9 |
| 20260507151709 | 57 | 99 | 0.9 | 6.1 | 0.00 | 0.12 | 0.00 | 65 | 1009.0 |
| 20260507151633 | 57 | 100 | 1.7 | 6.1 | 0.00 | 0.12 | 0.00 | 64 | 1009.0 |
| 20260507151454 | 57 | 211 | 1.7 | 6.1 | 0.00 | 0.12 | 0.00 | 64 | 1009.0 |
| 20260507151358 | 58 | 122 | 2.6 | 6.1 | 0.00 | 0.12 | 0.00 | 64 | 1009.0 |
| 20260507151302 | 58 | 108 | 1.7 | 6.1 | 0.00 | 0.12 | 0.00 | 63 | 1009.1 |
| 20260507151205 | 58 | 108 | 1.7 | 5.2 | 0.00 | 0.12 | 0.00 | 64 | 1009.0 |
| 20260507151130 | 58 | 91 | 2.6 | 5.2 | 0.00 | 0.12 | 0.00 | 64 | 1009.1 |
| 20260507150955 | 58 | 91 | 1.7 | 6.1 | 0.00 | 0.12 | 0.00 | 64 | 1009.0 |
| 20260507150859 | 58 | 98 | 0.9 | 6.1 | 0.00 | 0.12 | 0.00 | 65 | 1009.0 |
| 20260507150802 | 58 | 84 | 0.9 | 5.2 | 0.00 | 0.12 | 0.00 | 64 | 1009.0 |
| 20260507150706 | 58 | 23 | 0.9 | 7.8 | 0.00 | 0.12 | 0.00 | 64 | 1009.0 |
| 20260507150609 | 58 | 77 | 0.9 | 7.8 | 0.00 | 0.12 | 0.00 | 65 | 1009.0 |
| 20260507150455 | 58 | 89 | 1.7 | 7.8 | 0.00 | 0.12 | 0.00 | 64 | 1009.0 |
| 20260507150359 | 58 | 72 | 0.9 | 7.8 | 0.00 | 0.12 | 0.00 | 65 | 1009.0 |
| 20260507150302 | 58 | 59 | 0.9 | 8.7 | 0.00 | 0.12 | 0.00 | 66 | 1009.0 |
| 20260507150206 | 58 | 79 | 2.6 | 8.7 | 0.00 | 0.12 | 0.00 | 65 | 1009.1 |
| 20260507150121 | 58 | 122 | 3.5 | 8.7 | 0.00 | 0.12 | 0.00 | 65 | 1009.1 |
| 20260507150006 | 58 | 134 | 4.3 | 8.7 | 0.00 | 0.12 | 0.00 | 65 | 1009.1 |
| 20260507145910 | 58 | 146 | 3.5 | 8.7 | 0.00 | 0.12 | 0.00 | 64 | 1009.1 |
| 20260507145816 | 58 | 181 | 1.7 | 8.7 | 0.00 | 0.12 | 0.00 | 67 | 1009.1 |
| 20260507145659 | 58 | 156 | 1.7 | 8.7 | 0.00 | 0.12 | 0.00 | 69 | 1009.1 |
| 20260507145603 | 58 | 96 | 3.5 | 8.7 | 0.00 | 0.12 | 0.00 | 67 | 1009.1 |
| 20260507145505 | 58 | 51 | 1.7 | 8.7 | 0.00 | 0.12 | 0.00 | 67 | 1009.2 |
| 20260507145409 | 58 | 15 | 0.9 | 4.3 | 0.00 | 0.12 | 0.00 | 68 | 1009.1 |
| 20260507145313 | 58 | 50 | 0.9 | 4.3 | 0.00 | 0.12 | 0.00 | 69 | 1009.2 |
| 20260507145200 | 58 | 82 | 0.0 | 4.3 | 0.00 | 0.12 | 0.00 | 71 | 1009.1 |
| 20260507145103 | 58 | 82 | 0.9 | 4.3 | 0.00 | 0.12 | 0.00 | 69 | 1009.2 |
| 20260507145006 | 57 | 75 | 0.9 | 4.3 | 0.00 | 0.12 | 0.00 | 70 | 1009.2 |
| 20260507144910 | 57 | 49 | 0.0 | 4.3 | 0.00 | 0.12 | 0.00 | 70 | 1009.2 |
| 20260507144813 | 57 | 74 | 0.0 | 4.3 | 0.00 | 0.12 | 0.00 | 71 | 1009.3 |
| 20260507144656 | 57 | 52 | 1.7 | 4.3 | 0.00 | 0.12 | 0.00 | 71 | 1009.3 |
| 20260507144605 | 57 | 100 | 1.7 | 4.3 | 0.00 | 0.12 | 0.00 | 71 | 1009.3 |
| 20260507144507 | 57 | 110 | 0.0 | 4.3 | 0.00 | 0.12 | 0.00 | 72 | 1009.3 |
| 20260507144411 | 57 | 106 | 0.0 | 4.3 | 0.00 | 0.12 | 0.00 | 72 | 1009.3 |
| 20260507144254 | 56 | 113 | 0.0 | 4.3 | 0.00 | 0.12 | 0.00 | 71 | 1009.3 |
| 20260507144158 | 56 | 114 | 0.0 | 4.3 | 0.00 | 0.12 | 0.00 | 69 | 1009.3 |
| 20260507144101 | 56 | 115 | 0.9 | 4.3 | 0.00 | 0.12 | 0.00 | 69 | 1009.3 |
| 20260507144028 | 56 | 152 | 1.7 | 6.1 | 0.00 | 0.12 | 0.00 | 70 | 1009.3 |
| 20260507143931 | 57 | 94 | 1.7 | 6.1 | 0.00 | 0.12 | 0.00 | 70 | 1009.3 |
| 20260507143813 | 57 | 123 | 0.0 | 6.1 | 0.00 | 0.12 | 0.00 | 70 | 1009.3 |
| 20260507143657 | 57 | 91 | 0.9 | 6.1 | 0.00 | 0.12 | 0.00 | 70 | 1009.2 |
| 20260507143621 | 57 | 112 | 1.7 | 6.1 | 0.00 | 0.12 | 0.00 | 70 | 1009.2 |
| 20260507143503 | 57 | 88 | 1.7 | 6.1 | 0.00 | 0.12 | 0.00 | 70 | 1009.3 |
| 20260507143407 | 57 | 104 | 2.6 | 6.1 | 0.00 | 0.12 | 0.00 | 69 | 1009.3 |
| 20260507143314 | 57 | 84 | 2.6 | 6.1 | 0.00 | 0.12 | 0.00 | 71 | 1009.3 |
| 20260507143157 | 56 | 110 | 1.7 | 6.1 | 0.00 | 0.12 | 0.00 | 70 | 1009.3 |
| 20260507143101 | 56 | 165 | 0.9 | 6.1 | 0.00 | 0.12 | 0.00 | 71 | 1009.3 |
| 20260507143003 | 56 | 108 | 0.0 | 6.1 | 0.00 | 0.12 | 0.00 | 71 | 1009.3 |
| 20260507142907 | 56 | 61 | 0.0 | 6.1 | 0.00 | 0.12 | 0.00 | 70 | 1009.3 |
| 20260507142810 | 56 | 60 | 0.0 | 7.0 | 0.00 | 0.12 | 0.00 | 69 | 1009.3 |
| 20260507142658 | 56 | 117 | 0.9 | 7.0 | 0.00 | 0.12 | 0.00 | 69 | 1009.3 |
| 20260507142602 | 56 | 166 | 1.7 | 7.0 | 0.00 | 0.12 | 0.00 | 70 | 1009.3 |
| 20260507142505 | 56 | 118 | 0.9 | 7.0 | 0.00 | 0.12 | 0.00 | 72 | 1009.4 |
| 20260507142429 | 56 | 118 | 0.9 | 7.0 | 0.00 | 0.12 | 0.00 | 72 | 1009.4 |
| 20260507142331 | 56 | 149 | 1.7 | 7.0 | 0.00 | 0.12 | 0.00 | 73 | 1009.4 |
| 20260507142213 | 56 | 105 | 2.6 | 7.0 | 0.00 | 0.12 | 0.00 | 73 | 1009.4 |
| 20260507142057 | 56 | 128 | 1.7 | 7.0 | 0.00 | 0.12 | 0.00 | 73 | 1009.4 |
| 20260507142003 | 56 | 76 | 0.9 | 7.0 | 0.00 | 0.12 | 0.00 | 74 | 1009.4 |
| 20260507141906 | 55 | 117 | 0.9 | 4.3 | 0.00 | 0.12 | 0.00 | 74 | 1009.5 |
| 20260507141810 | 55 | 132 | 1.7 | 4.3 | 0.00 | 0.12 | 0.00 | 73 | 1009.4 |
| 20260507141713 | 55 | 79 | 1.7 | 4.3 | 0.00 | 0.12 | 0.00 | 73 | 1009.5 |
| 20260507141558 | 55 | 121 | 1.7 | 5.2 | 0.00 | 0.12 | 0.00 | 73 | 1009.4 |
| 20260507141500 | 55 | 110 | 1.7 | 5.2 | 0.00 | 0.12 | 0.00 | 72 | 1009.5 |
| 20260507141408 | 56 | 106 | 1.7 | 5.2 | 0.00 | 0.12 | 0.00 | 74 | 1009.5 |
| 20260507141311 | 55 | 157 | 0.9 | 5.2 | 0.00 | 0.12 | 0.00 | 75 | 1009.4 |
| 20260507141154 | 55 | 72 | 0.0 | 5.2 | 0.00 | 0.12 | 0.00 | 77 | 1009.5 |
| 20260507141118 | 55 | 74 | 0.0 | 5.2 | 0.00 | 0.12 | 0.00 | 76 | 1009.5 |
| 20260507141000 | 55 | 68 | 0.0 | 5.2 | 0.00 | 0.12 | 0.00 | 77 | 1009.5 |
| 20260507140903 | 55 | 62 | 0.9 | 5.2 | 0.00 | 0.12 | 0.00 | 78 | 1009.5 |
| 20260507140811 | 55 | 121 | 1.7 | 5.2 | 0.00 | 0.12 | 0.00 | 76 | 1009.5 |
| 20260507140654 | 54 | 156 | 1.7 | 3.5 | 0.00 | 0.12 | 0.00 | 76 | 1009.5 |
| 20260507140559 | 54 | 115 | 0.9 | 3.5 | 0.00 | 0.12 | 0.00 | 77 | 1009.5 |
| 20260507140501 | 54 | 132 | 0.9 | 5.2 | 0.00 | 0.12 | 0.00 | 77 | 1009.5 |
| 20260507140406 | 54 | 132 | 0.9 | 5.2 | 0.00 | 0.12 | 0.00 | 77 | 1009.5 |
| 20260507140308 | 54 | 187 | 1.7 | 5.2 | 0.00 | 0.12 | 0.00 | 77 | 1009.4 |
| 20260507140156 | 54 | 96 | 1.7 | 5.2 | 0.00 | 0.12 | 0.00 | 79 | 1009.5 |
| 20260507140130 | 54 | 187 | 0.9 | 5.2 | 0.00 | 0.12 | 0.00 | 80 | 1009.5 |
| 20260507135955 | 54 | 96 | 0.9 | 5.2 | 0.00 | 0.12 | 0.00 | 79 | 1009.4 |
| 20260507135918 | 54 | 131 | 0.9 | 5.2 | 0.00 | 0.12 | 0.00 | 79 | 1009.4 |
| 20260507135821 | 54 | 148 | 1.7 | 5.2 | 0.00 | 0.12 | 0.00 | 79 | 1009.5 |
| 20260507135704 | 54 | 184 | 1.7 | 5.2 | 0.00 | 0.12 | 0.00 | 78 | 1009.5 |
| 20260507135607 | 54 | 118 | 1.7 | 5.2 | 0.00 | 0.12 | 0.00 | 81 | 1009.5 |
| 20260507135513 | 54 | 110 | 1.7 | 5.2 | 0.00 | 0.12 | 0.00 | 80 | 1009.6 |
| 20260507135357 | 54 | 94 | 0.9 | 5.2 | 0.00 | 0.12 | 0.00 | 80 | 1009.6 |
| 20260507135300 | 54 | 89 | 0.9 | 5.2 | 0.00 | 0.12 | 0.00 | 81 | 1009.6 |
| 20260507135204 | 54 | 146 | 0.9 | 5.2 | 0.00 | 0.12 | 0.00 | 82 | 1009.6 |
| 20260507135129 | 54 | 115 | 0.0 | 5.2 | 0.00 | 0.12 | 0.00 | 83 | 1009.6 |
| 20260507135010 | 54 | 57 | 0.0 | 5.2 | 0.00 | 0.12 | 0.00 | 82 | 1009.6 |
| 20260507134858 | 54 | 57 | 0.9 | 5.2 | 0.00 | 0.12 | 0.00 | 81 | 1009.6 |
| 20260507134822 | 54 | 109 | 1.7 | 5.2 | 0.00 | 0.12 | 0.00 | 80 | 1009.6 |
| 20260507134704 | 54 | 93 | 1.7 | 5.2 | 0.00 | 0.12 | 0.00 | 80 | 1009.6 |
| 20260507134608 | 54 | 97 | 1.7 | 5.2 | 0.00 | 0.12 | 0.00 | 81 | 1009.5 |
| 20260507134510 | 54 | 99 | 2.6 | 5.2 | 0.00 | 0.12 | 0.00 | 82 | 1009.6 |
| 20260507134414 | 54 | 98 | 1.7 | 5.2 | 0.00 | 0.12 | 0.00 | 83 | 1009.6 |
| 20260507134257 | 54 | 166 | 0.9 | 5.2 | 0.00 | 0.12 | 0.00 | 86 | 1009.6 |
| 20260507134204 | 54 | 60 | 0.0 | 5.2 | 0.00 | 0.12 | 0.00 | 85 | 1009.6 |
| 20260507134129 | 53 | 101 | 0.0 | 5.2 | 0.00 | 0.12 | 0.00 | 86 | 1009.6 |
| 20260507134011 | 53 | 103 | 0.0 | 5.2 | 0.00 | 0.12 | 0.00 | 85 | 1009.6 |
| 20260507133914 | 53 | 104 | 0.0 | 5.2 | 0.00 | 0.12 | 0.00 | 85 | 1009.6 |
| 20260507133757 | 53 | 91 | 1.7 | 5.2 | 0.00 | 0.12 | 0.00 | 85 | 1009.6 |
| 20260507133701 | 53 | 138 | 1.7 | 5.2 | 0.00 | 0.12 | 0.00 | 86 | 1009.6 |
| 20260507133609 | 53 | 127 | 1.7 | 5.2 | 0.00 | 0.12 | 0.00 | 86 | 1009.6 |
| 20260507133511 | 53 | 101 | 0.9 | 5.2 | 0.00 | 0.12 | 0.00 | 86 | 1009.6 |
| 20260507133435 | 53 | 127 | 0.9 | 6.1 | 0.00 | 0.12 | 0.00 | 86 | 1009.7 |
| 20260507133317 | 53 | 110 | 1.7 | 6.1 | 0.00 | 0.12 | 0.00 | 86 | 1009.7 |
| 20260507133200 | 53 | 76 | 0.9 | 6.1 | 0.00 | 0.12 | 0.00 | 87 | 1009.7 |
| 20260507133104 | 53 | 134 | 1.7 | 6.1 | 0.00 | 0.12 | 0.00 | 87 | 1009.7 |
| 20260507133007 | 53 | 87 | 1.7 | 6.1 | 0.00 | 0.12 | 0.00 | 88 | 1009.7 |
| 20260507132854 | 53 | 191 | 0.0 | 7.8 | 0.00 | 0.12 | 0.00 | 89 | 1009.7 |
| 20260507132818 | 53 | 112 | 0.9 | 7.8 | 0.00 | 0.12 | 0.00 | 89 | 1009.7 |
| 20260507132721 | 52 | 110 | 1.7 | 7.8 | 0.00 | 0.12 | 0.00 | 88 | 1009.7 |
| 20260507132603 | 52 | 106 | 1.7 | 7.8 | 0.00 | 0.12 | 0.00 | 88 | 1009.6 |
| 20260507132506 | 52 | 93 | 0.9 | 7.8 | 0.00 | 0.12 | 0.00 | 90 | 1009.7 |
| 20260507132409 | 52 | 100 | 0.9 | 7.8 | 0.00 | 0.12 | 0.00 | 90 | 1009.6 |
| 20260507132313 | 52 | 124 | 1.7 | 7.8 | 0.00 | 0.12 | 0.00 | 90 | 1009.7 |
| 20260507132200 | 52 | 89 | 2.6 | 7.8 | 0.00 | 0.12 | 0.00 | 90 | 1009.7 |
| 20260507132104 | 52 | 174 | 3.5 | 7.8 | 0.00 | 0.12 | 0.00 | 90 | 1009.7 |
| 20260507132006 | 52 | 141 | 2.6 | 7.8 | 0.00 | 0.12 | 0.00 | 90 | 1009.6 |
| 20260507131910 | 52 | 115 | 0.9 | 5.2 | 0.00 | 0.12 | 0.00 | 90 | 1009.6 |
| 20260507131813 | 52 | 72 | 1.7 | 4.3 | 0.00 | 0.12 | 0.00 | 91 | 1009.6 |
| 20260507131657 | 51 | 138 | 0.9 | 4.3 | 0.00 | 0.12 | 0.00 | 91 | 1009.7 |
| 20260507131605 | 51 | 125 | 0.0 | 7.8 | 0.00 | 0.12 | 0.00 | 91 | 1009.7 |
| 20260507131508 | 51 | 126 | 0.0 | 7.8 | 0.00 | 0.12 | 0.00 | 91 | 1009.7 |
| 20260507131411 | 51 | 74 | 0.0 | 7.8 | 0.00 | 0.12 | 0.00 | 92 | 1009.6 |
| 20260507131254 | 51 | 108 | 0.0 | 7.8 | 0.00 | 0.12 | 0.00 | 92 | 1009.6 |
| 20260507131157 | 51 | 108 | 0.9 | 7.8 | 0.00 | 0.12 | 0.00 | 91 | 1009.6 |
| 20260507131101 | 51 | 132 | 0.9 | 7.8 | 0.00 | 0.12 | 0.00 | 92 | 1009.6 |
| 20260507131008 | 51 | 103 | 0.0 | 7.8 | 0.00 | 0.12 | 0.00 | 92 | 1009.6 |
| 20260507130911 | 51 | 98 | 1.7 | 7.8 | 0.00 | 0.12 | 0.00 | 92 | 1009.6 |
| 20260507130755 | 51 | 98 | 2.6 | 7.8 | 0.00 | 0.12 | 0.00 | 92 | 1009.6 |
| 20260507130658 | 51 | 115 | 1.7 | 7.0 | 0.00 | 0.12 | 0.00 | 93 | 1009.6 |
| 20260507130602 | 51 | 108 | 0.9 | 5.2 | 0.00 | 0.12 | 0.00 | 93 | 1009.7 |
| 20260507130504 | 51 | 86 | 1.7 | 5.2 | 0.00 | 0.12 | 0.00 | 93 | 1009.8 |
| 20260507130412 | 51 | 203 | 1.7 | 6.1 | 0.00 | 0.12 | 0.00 | 93 | 1009.8 |
| 20260507130315 | 51 | 111 | 0.9 | 6.1 | 0.00 | 0.12 | 0.00 | 95 | 1009.8 |
| 20260507130218 | 51 | 159 | 0.9 | 6.1 | 0.00 | 0.12 | 0.00 | 95 | 1009.8 |
| 20260507130133 | 51 | 106 | 0.0 | 6.1 | 0.00 | 0.12 | 0.00 | 95 | 1009.8 |
| 20260507125957 | 51 | 98 | 0.0 | 6.1 | 0.00 | 0.12 | 0.00 | 95 | 1009.7 |
| 20260507125901 | 51 | 97 | 0.0 | 7.0 | 0.00 | 0.12 | 0.00 | 94 | 1009.8 |
| 20260507125804 | 51 | 98 | 0.9 | 7.0 | 0.00 | 0.12 | 0.00 | 94 | 1009.7 |
| 20260507125711 | 51 | 79 | 1.7 | 7.0 | 0.00 | 0.12 | 0.00 | 95 | 1009.8 |
| 20260507125555 | 51 | 96 | 1.7 | 7.0 | 0.00 | 0.12 | 0.00 | 95 | 1009.8 |
| 20260507125458 | 51 | 97 | 0.9 | 7.0 | 0.00 | 0.12 | 0.00 | 95 | 1009.8 |
| 20260507125401 | 50 | 118 | 1.7 | 7.0 | 0.00 | 0.12 | 0.00 | 95 | 1009.7 |
| 20260507125307 | 50 | 130 | 2.6 | 7.0 | 0.00 | 0.12 | 0.00 | 95 | 1009.7 |
| 20260507125208 | 50 | 128 | 3.5 | 7.0 | 0.00 | 0.12 | 0.00 | 96 | 1009.7 |
| 20260507125055 | 51 | 134 | 1.7 | 7.0 | 0.00 | 0.12 | 0.00 | 97 | 1009.7 |
| 20260507124958 | 51 | 110 | 0.0 | 4.3 | 0.00 | 0.12 | 0.00 | 97 | 1009.7 |
| 20260507124901 | 51 | 110 | 0.0 | 4.3 | 0.00 | 0.12 | 0.00 | 97 | 1009.6 |
| 20260507124805 | 51 | 104 | 0.0 | 4.3 | 0.00 | 0.12 | 0.00 | 98 | 1009.6 |
| 20260507124729 | 51 | 335 | 0.0 | 4.3 | 0.00 | 0.12 | 0.00 | 98 | 1009.7 |
| 20260507124611 | 51 | 79 | 0.0 | 4.3 | 0.00 | 0.12 | 0.00 | 98 | 1009.6 |
| 20260507124458 | 50 | 111 | 0.9 | 4.3 | 0.00 | 0.12 | 0.00 | 98 | 1009.7 |
| 20260507124401 | 50 | 118 | 1.7 | 4.3 | 0.00 | 0.12 | 0.00 | 98 | 1009.6 |
| 20260507124305 | 50 | 115 | 1.7 | 4.3 | 0.00 | 0.12 | 0.00 | 98 | 1009.6 |
| 20260507124208 | 50 | 110 | 0.0 | 2.6 | 0.00 | 0.12 | 0.00 | 98 | 1009.6 |
| 20260507124113 | 50 | 108 | 0.9 | 2.6 | 0.00 | 0.12 | 0.00 | 98 | 1009.6 |
| 20260507124015 | 50 | 104 | 0.9 | 2.6 | 0.00 | 0.12 | 0.00 | 99 | 1009.6 |
| 20260507123902 | 50 | 113 | 0.0 | 0.9 | 0.00 | 0.12 | 0.00 | 99 | 1009.6 |
| 20260507123805 | 50 | 40 | 0.0 | 0.9 | 0.00 | 0.12 | 0.00 | 99 | 1009.6 |
| 20260507123729 | 50 | 91 | 0.0 | 1.7 | 0.00 | 0.12 | 0.00 | 99 | 1009.6 |
| 20260507123613 | 50 | 91 | 0.0 | 1.7 | 0.00 | 0.12 | 0.00 | 99 | 1009.5 |
| 20260507123455 | 50 | 111 | 0.0 | 2.6 | 0.00 | 0.12 | 0.00 | 99 | 1009.6 |
| 20260507123418 | 50 | 132 | 0.0 | 2.6 | 0.00 | 0.12 | 0.00 | 99 | 1009.6 |
| 20260507123301 | 50 | 94 | 0.0 | 2.6 | 0.00 | 0.12 | 0.00 | 99 | 1009.6 |
| 20260507123209 | 49 | 115 | 0.0 | 2.6 | 0.00 | 0.12 | 0.00 | 99 | 1009.6 |
| 20260507123112 | 49 | 115 | 0.0 | 2.6 | 0.00 | 0.12 | 0.00 | 99 | 1009.7 |
| 20260507122954 | 49 | 115 | 0.0 | 2.6 | 0.00 | 0.12 | 0.00 | 99 | 1009.7 |
| 20260507122858 | 49 | 139 | 0.9 | 2.6 | 0.00 | 0.12 | 0.00 | 99 | 1009.7 |
| 20260507122801 | 49 | 138 | 0.9 | 2.6 | 0.00 | 0.12 | 0.00 | 99 | 1009.7 |
| 20260507122706 | 49 | 152 | 0.9 | 2.6 | 0.00 | 0.12 | 0.00 | 99 | 1009.8 |
| 20260507122613 | 49 | 101 | 0.0 | 2.6 | 0.00 | 0.12 | 0.00 | 99 | 1009.9 |
| 20260507122456 | 49 | 108 | 0.9 | 2.6 | 0.00 | 0.12 | 0.00 | 99 | 1009.9 |
| 20260507122419 | 49 | 90 | 0.9 | 2.6 | 0.00 | 0.12 | 0.00 | 99 | 1009.9 |
| 20260507122306 | 49 | 187 | 0.0 | 0.9 | 0.00 | 0.12 | 0.00 | 99 | 1010.0 |
| 20260507122206 | 49 | 80 | 0.0 | 0.9 | 0.00 | 0.12 | 0.00 | 99 | 1010.1 |
| 20260507122109 | 49 | 98 | 0.0 | 0.9 | 0.00 | 0.12 | 0.00 | 99 | 1010.1 |
| 20260507121956 | 49 | 69 | 0.0 | 0.9 | 0.00 | 0.12 | 0.12 | 99 | 1010.0 |
| 20260507121859 | 49 | 98 | 0.0 | 0.9 | 0.00 | 0.12 | 0.12 | 99 | 1010.0 |
| 20260507121802 | 49 | 98 | 0.0 | 0.9 | 0.00 | 0.12 | 0.12 | 99 | 1010.0 |
| 20260507121706 | 49 | 98 | 0.0 | 0.9 | 0.00 | 0.12 | 0.12 | 99 | 1010.0 |
| 20260507121610 | 49 | 98 | 0.0 | 0.9 | 0.00 | 0.12 | 0.12 | 99 | 1010.0 |
| 20260507121512 | 49 | 97 | 0.0 | 0.9 | 0.00 | 0.12 | 0.12 | 99 | 1010.0 |
| 20260507121400 | 49 | 97 | 0.0 | 0.9 | 0.00 | 0.12 | 0.12 | 99 | 1010.0 |
| 20260507121303 | 48 | 79 | 0.0 | 0.9 | 0.00 | 0.12 | 0.12 | 99 | 1010.1 |
| 20260507121206 | 48 | 79 | 0.0 | 0.9 | 0.00 | 0.12 | 0.12 | 99 | 1010.1 |
| 20260507121111 | 48 | 79 | 0.0 | 0.9 | 0.00 | 0.12 | 0.12 | 99 | 1010.1 |
| 20260507121013 | 48 | 74 | 0.0 | 0.9 | 0.00 | 0.12 | 0.12 | 99 | 1010.0 |
| 20260507120857 | 48 | 74 | 0.0 | 0.9 | 0.00 | 0.12 | 0.12 | 99 | 1009.9 |
| 20260507120804 | 48 | 74 | 0.0 | 0.9 | 0.00 | 0.12 | 0.12 | 99 | 1009.8 |
| 20260507120708 | 48 | 94 | 0.0 | 0.9 | 0.00 | 0.12 | 0.12 | 99 | 1009.7 |
| 20260507120611 | 48 | 94 | 0.0 | 0.9 | 0.00 | 0.12 | 0.12 | 99 | 1009.7 |
| 20260507120514 | 48 | 94 | 0.0 | 0.9 | 0.00 | 0.12 | 0.12 | 99 | 1009.7 |
| 20260507120357 | 48 | 97 | 0.0 | 0.9 | 0.00 | 0.12 | 0.12 | 99 | 1009.6 |
| 20260507120300 | 48 | 98 | 0.0 | 0.9 | 0.00 | 0.12 | 0.12 | 99 | 1009.6 |
| 20260507120208 | 48 | 98 | 0.0 | 0.9 | 0.00 | 0.12 | 0.12 | 99 | 1009.6 |
| 20260507120123 | 48 | 98 | 0.0 | 0.9 | 0.00 | 0.12 | 0.12 | 99 | 1009.6 |
| 20260507120008 | 48 | 78 | 0.0 | 0.9 | 0.00 | 0.12 | 0.12 | 99 | 1009.6 |
| 20260507115911 | 48 | 77 | 0.0 | 0.9 | 0.00 | 0.12 | 0.12 | 99 | 1009.5 |
| 20260507115815 | 48 | 77 | 0.0 | 0.9 | 0.00 | 0.12 | 0.12 | 99 | 1009.5 |
| 20260507115658 | 48 | 77 | 0.0 | 0.9 | 0.00 | 0.12 | 0.12 | 99 | 1009.5 |
| 20260507115602 | 48 | 77 | 0.0 | 0.0 | 0.00 | 0.12 | 0.12 | 99 | 1009.5 |
| 20260507115509 | 48 | 78 | 0.0 | 0.0 | 0.00 | 0.12 | 0.12 | 99 | 1009.5 |
| 20260507115411 | 48 | 77 | 0.0 | 0.0 | 0.00 | 0.12 | 0.12 | 99 | 1009.5 |
| 20260507115254 | 48 | 77 | 0.0 | 0.9 | 0.00 | 0.12 | 0.12 | 99 | 1009.6 |
| 20260507115158 | 48 | 77 | 0.0 | 0.9 | 0.00 | 0.12 | 0.12 | 99 | 1009.6 |
| 20260507115123 | 48 | 77 | 0.0 | 0.9 | 0.00 | 0.12 | 0.12 | 99 | 1009.6 |
| 20260507115004 | 48 | 78 | 0.0 | 0.9 | 0.00 | 0.12 | 0.12 | 99 | 1009.7 |
| 20260507114912 | 48 | 77 | 0.0 | 0.9 | 0.00 | 0.12 | 0.12 | 99 | 1009.7 |
| 20260507114755 | 48 | 77 | 0.0 | 0.9 | 0.00 | 0.12 | 0.12 | 99 | 1009.7 |
| 20260507114658 | 48 | 77 | 0.0 | 0.9 | 0.00 | 0.12 | 0.12 | 99 | 1009.6 |
| 20260507114602 | 48 | 77 | 0.0 | 0.9 | 0.00 | 0.12 | 0.12 | 99 | 1009.6 |
| 20260507114505 | 48 | 78 | 0.0 | 0.9 | 0.00 | 0.12 | 0.12 | 99 | 1009.5 |
| 20260507114428 | 48 | 78 | 0.0 | 0.0 | 0.00 | 0.12 | 0.12 | 99 | 1009.4 |
| 20260507114255 | 48 | 78 | 0.0 | 0.0 | 0.00 | 0.12 | 0.12 | 99 | 1009.4 |
| 20260507114219 | 48 | 78 | 0.0 | 0.0 | 0.00 | 0.12 | 0.12 | 99 | 1009.4 |
| 20260507114058 | 48 | 78 | 0.0 | 0.0 | 0.00 | 0.12 | 0.12 | 99 | 1009.4 |
| 20260507114000 | 48 | 77 | 0.0 | 0.0 | 0.00 | 0.12 | 0.12 | 99 | 1009.5 |
| 20260507113904 | 48 | 78 | 0.0 | 0.0 | 0.00 | 0.12 | 0.12 | 99 | 1009.6 |
| 20260507113807 | 48 | 77 | 0.0 | 0.0 | 0.00 | 0.12 | 0.12 | 99 | 1009.6 |
| 20260507113711 | 48 | 78 | 0.0 | 0.0 | 0.00 | 0.12 | 0.12 | 99 | 1009.6 |
| 20260507113600 | 48 | 77 | 0.0 | 0.0 | 0.00 | 0.12 | 0.12 | 99 | 1009.6 |
| 20260507113502 | 48 | 77 | 0.0 | 0.0 | 0.00 | 0.12 | 0.12 | 99 | 1009.6 |
| 20260507113406 | 48 | 77 | 0.0 | 0.0 | 0.00 | 0.12 | 0.12 | 99 | 1009.6 |
| 20260507113309 | 48 | 77 | 0.0 | 0.0 | 0.00 | 0.12 | 0.12 | 99 | 1009.6 |
| 20260507113212 | 48 | 77 | 0.0 | 0.0 | 0.00 | 0.12 | 0.12 | 99 | 1009.7 |
| 20260507113056 | 48 | 78 | 0.0 | 0.0 | 0.00 | 0.12 | 0.12 | 99 | 1009.7 |
| 20260507113002 | 48 | 77 | 0.0 | 0.0 | 0.00 | 0.12 | 0.12 | 99 | 1009.7 |
| 20260507112906 | 48 | 78 | 0.0 | 0.0 | 0.00 | 0.12 | 0.12 | 99 | 1009.7 |
| 20260507112809 | 47 | 77 | 0.0 | 0.0 | 0.00 | 0.12 | 0.12 | 99 | 1009.6 |
| 20260507112713 | 48 | 77 | 0.0 | 0.0 | 0.00 | 0.12 | 0.12 | 99 | 1009.6 |
| 20260507112557 | 48 | 77 | 0.0 | 0.9 | 0.00 | 0.12 | 0.12 | 99 | 1009.5 |
| 20260507112520 | 47 | 78 | 0.0 | 0.9 | 0.00 | 0.12 | 0.12 | 99 | 1009.6 |
| 20260507112423 | 47 | 78 | 0.0 | 0.9 | 0.00 | 0.12 | 0.12 | 99 | 1009.6 |
| 20260507112309 | 47 | 77 | 0.0 | 0.9 | 0.00 | 0.12 | 0.12 | 99 | 1009.6 |
| 20260507112213 | 47 | 77 | 0.0 | 0.9 | 0.00 | 0.12 | 0.12 | 99 | 1009.5 |
| 20260507112056 | 47 | 77 | 0.0 | 0.9 | 0.00 | 0.12 | 0.12 | 99 | 1009.6 |
| 20260507111958 | 47 | 78 | 0.0 | 0.9 | 0.00 | 0.12 | 0.12 | 99 | 1009.5 |
| 20260507111922 | 47 | 77 | 284.2 | 0.9 | 0.00 | 0.12 | 0.12 | 99 | 1009.5 |
| 20260507111825 | 47 | 77 | 284.2 | 0.9 | 0.00 | 0.12 | 0.12 | 99 | 1009.5 |
| 20260507111606 | 0 | 0.0 | 0.0 | 0.00 | 0.12 | 0.12 | 1009.4 | ||
| 20260507111509 | 0 | 0.0 | 0.0 | 0.00 | 0.12 | 0.12 | 1009.4 | ||
| 20260507111411 | 0 | 0.0 | 0.0 | 0.00 | 0.12 | 0.12 | 1009.3 | ||
| 20260507111255 | 0 | 0.0 | 0.0 | 0.00 | 0.12 | 0.12 | 1009.3 | ||
| 20260507111158 | 0 | 0.0 | 0.0 | 0.00 | 0.12 | 0.12 | 1009.4 | ||
| 20260507111102 | 0 | 0.0 | 0.0 | 0.00 | 0.12 | 0.12 | 1009.4 | ||
| 20260507111008 | 0 | 0.0 | 0.0 | 0.00 | 0.12 | 0.12 | 1009.4 | ||
| 20260507110912 | 0 | 0.0 | 0.0 | 0.00 | 0.12 | 0.12 | 1009.4 | ||
| 20260507110755 | 0 | 0.0 | 0.0 | 0.00 | 0.12 | 0.12 | 1009.4 | ||
| 20260507110659 | 0 | 0.0 | 0.0 | 0.00 | 0.12 | 0.12 | 1009.4 | ||
| 20260507110603 | 0 | 0.0 | 0.0 | 0.00 | 0.12 | 0.12 | 1009.4 | ||
| 20260507110505 | 0 | 0.0 | 0.0 | 0.00 | 0.12 | 0.12 | 1009.4 | ||
| 20260507110413 | 0 | 0.0 | 0.0 | 0.00 | 0.12 | 0.12 | 1009.4 | ||
| 20260507110256 | 0 | 0.0 | 0.0 | 0.00 | 0.12 | 0.12 | 1009.3 | ||
| 20260507110200 | 0 | 0.0 | 0.0 | 0.00 | 0.12 | 0.12 | 1009.3 | ||
| 20260507110115 | 0 | 0.0 | 0.0 | 0.00 | 0.12 | 0.12 | 1009.3 | ||
| 20260507110020 | 0 | 0.0 | 0.0 | 0.00 | 0.12 | 0.12 | 1009.4 | ||
| 20260507105944 | 0 | 0.0 | 0.0 | 0.00 | 0.12 | 0.12 | 1009.4 | ||
| 20260507105740 | 0 | 0.0 | 0.0 | 0.00 | 0.12 | 0.12 | 1009.4 | ||
| 20260507105201 | 0 | 0.0 | 0.0 | 0.00 | 0.12 | 0.12 | 1009.1 | ||
| 20260507105124 | 0 | 0.0 | 0.0 | 0.00 | 0.12 | 0.12 | 1009.0 | ||
| 20260507105005 | 0 | 0.0 | 0.0 | 0.00 | 0.12 | 0.12 | 1008.9 | ||
| 20260507104930 | 0 | 0.0 | 0.0 | 0.00 | 0.12 | 0.12 | 1009.0 | ||
| 20260507104834 | 0 | 0.0 | 0.0 | 0.00 | 0.12 | 0.12 | 1009.0 | ||
| 20260507104656 | 0 | 0.0 | 0.0 | 0.00 | 0.12 | 0.12 | 1009.2 | ||
| 20260507104605 | 0 | 0.0 | 0.0 | 0.00 | 0.12 | 0.12 | 1009.3 | ||
| 20260507104508 | 0 | 0.0 | 0.0 | 0.00 | 0.12 | 0.12 | 1009.3 | ||
| 20260507104411 | 0 | 0.0 | 0.0 | 0.00 | 0.12 | 0.12 | 1009.2 | ||
| 20260507104254 | 0 | 0.0 | 0.0 | 0.00 | 0.12 | 0.12 | 1009.1 | ||
| 20260507104158 | 0 | 0.0 | 0.0 | 0.00 | 0.12 | 0.12 | 1009.0 | ||
| 20260507104102 | 0 | 0.0 | 0.0 | 0.00 | 0.12 | 0.12 | 1009.1 | ||
| 20260507104008 | 0 | 0.0 | 0.0 | 0.00 | 0.12 | 0.12 | 1009.1 | ||
| 20260507103911 | 0 | 0.0 | 0.0 | 0.00 | 0.12 | 0.12 | 1009.2 | ||
| 20260507103754 | 0 | 0.0 | 0.0 | 0.00 | 0.12 | 0.12 | 1009.2 | ||
| 20260507103658 | 0 | 0.0 | 0.0 | 0.00 | 0.12 | 0.12 | 1009.2 | ||
| 20260507103623 | 0 | 0.0 | 0.0 | 0.00 | 0.12 | 0.12 | 1009.2 | ||
| 20260507103525 | 0 | 0.0 | 0.0 | 0.00 | 0.12 | 0.12 | 1009.2 | ||
| 20260507103407 | 0 | 0.0 | 0.0 | 0.00 | 0.12 | 0.12 | 1009.1 | ||
| 20260507103330 | 0 | 0.0 | 0.0 | 0.00 | 0.12 | 0.12 | 1009.1 | ||
| 20260507103259 | 0 | 0.0 | 0.0 | 0.00 | 0.12 | 0.12 | 1009.0 | ||
| 20260507102715 | 0 | 0.0 | 0.0 | 0.00 | 0.12 | 0.12 | 1009.4 | ||
| 20260507102611 | 0 | 0.0 | 0.0 | 0.00 | 0.12 | 0.12 | 1009.5 | ||
| 20260507102514 | 0 | 0.0 | 0.0 | 0.00 | 0.12 | 0.12 | 1009.5 | ||
| 20260507102357 | 0 | 0.0 | 0.0 | 0.00 | 0.12 | 0.12 | 1009.5 | ||
| 20260507102307 | 0 | 0.0 | 0.0 | 0.00 | 0.12 | 0.12 | 1009.5 | ||
| 20260507102208 | 0 | 0.0 | 0.0 | 0.00 | 0.12 | 0.12 | 1009.4 | ||
| 20260507102112 | 0 | 0.0 | 0.0 | 0.00 | 0.12 | 0.12 | 1009.4 | ||
| 20260507102014 | 0 | 0.0 | 0.0 | 0.00 | 0.12 | 0.12 | 1009.4 | ||
| 20260507101857 | 0 | 0.0 | 0.0 | 0.00 | 0.12 | 0.12 | 1009.4 | ||
| 20260507101822 | 0 | 0.0 | 0.0 | 0.00 | 0.12 | 0.12 | 1009.5 | ||
| 20260507101709 | 0 | 0.0 | 0.0 | 0.00 | 0.12 | 0.12 | 1009.5 | ||
| 20260507101613 | 0 | 0.0 | 0.0 | 0.00 | 0.12 | 0.12 | 1009.6 | ||
| 20260507101456 | 0 | 0.0 | 0.0 | 0.00 | 0.12 | 0.12 | 1009.6 | ||
| 20260507101359 | 0 | 0.0 | 0.0 | 0.00 | 0.12 | 0.12 | 1009.6 | ||
| 20260507101303 | 0 | 0.0 | 0.0 | 0.00 | 0.12 | 0.12 | 1009.6 | ||
| 20260507101206 | 0 | 0.0 | 0.0 | 0.00 | 0.12 | 0.12 | 1009.6 | ||
| 20260507101114 | 0 | 0.0 | 0.0 | 0.00 | 0.12 | 0.12 | 1009.5 | ||
| 20260507100956 | 0 | 0.0 | 0.0 | 0.00 | 0.12 | 0.12 | 1009.5 | ||
| 20260507100920 | 0 | 0.0 | 0.0 | 0.00 | 0.12 | 0.12 | 1009.4 | ||
| 20260507100844 | 0 | 0.0 | 0.0 | 0.00 | 0.12 | 0.12 | 1009.4 | ||
| 20260507100639 | 0 | 0.0 | 0.0 | 0.00 | 0.12 | 0.12 | 1009.3 | ||
| 20260507100115 | 0 | 0.0 | 0.0 | 0.00 | 0.12 | 0.12 | 1009.3 | ||
| 20260507100005 | 0 | 0.0 | 0.0 | 0.00 | 0.12 | 0.12 | 1009.3 | ||
| 20260507095908 | 0 | 0.0 | 0.0 | 0.00 | 0.12 | 0.12 | 1009.3 | ||
| 20260507095811 | 0 | 0.0 | 0.0 | 0.00 | 0.12 | 0.12 | 1009.3 | ||
| 20260507095735 | 0 | 0.0 | 0.0 | 0.00 | 0.12 | 0.12 | 1009.3 | ||
| 20260507095558 | 0 | 0.0 | 0.0 | 0.00 | 0.12 | 0.12 | 1009.2 | ||
| 20260507095501 | 0 | 0.0 | 0.0 | 0.00 | 0.12 | 0.12 | 1009.2 | ||
| 20260507095408 | 0 | 0.0 | 0.0 | 0.00 | 0.12 | 0.12 | 1009.2 | ||
| 20260507095312 | 0 | 0.0 | 0.0 | 0.00 | 0.12 | 0.12 | 1009.2 | ||
| 20260507095155 | 0 | 0.0 | 0.0 | 0.00 | 0.12 | 0.12 | 1009.2 | ||
| 20260507095059 | 0 | 0.0 | 0.0 | 0.00 | 0.12 | 0.12 | 1009.2 | ||
| 20260507095001 | 0 | 0.0 | 0.0 | 0.00 | 0.12 | 0.12 | 1009.2 | ||
| 20260507094925 | 0 | 0.0 | 0.0 | 0.00 | 0.12 | 0.12 | 1009.3 | ||
| 20260507094829 | 0 | 0.0 | 0.0 | 0.00 | 0.12 | 0.12 | 1009.4 | ||
| 20260507094655 | 0 | 0.0 | 0.0 | 0.00 | 0.12 | 0.12 | 1009.4 | ||
| 20260507094600 | 0 | 0.0 | 0.0 | 0.00 | 0.12 | 0.12 | 1009.4 | ||
| 20260507094502 | 0 | 0.0 | 0.0 | 0.00 | 0.12 | 0.12 | 1009.2 | ||
| 20260507094406 | 0 | 0.0 | 0.0 | 0.00 | 0.12 | 0.12 | 1009.2 | ||
| 20260507094309 | 0 | 0.0 | 0.0 | 0.00 | 0.12 | 0.12 | 1009.0 | ||
| 20260507093557 | 0 | 0.0 | 0.0 | 0.00 | 0.12 | 0.12 | 1008.8 | ||
| 20260507093459 | 0 | 0.0 | 0.0 | 0.00 | 0.12 | 0.12 | 1008.8 | ||
| 20260507093403 | 0 | 0.0 | 0.0 | 0.00 | 0.12 | 0.12 | 1008.8 | ||
| 20260507093306 | 0 | 0.0 | 0.0 | 0.00 | 0.12 | 0.12 | 1008.8 | ||
| 20260507093210 | 0 | 0.0 | 0.0 | 0.00 | 0.12 | 0.12 | 1008.9 | ||
| 20260507093058 | 0 | 0.0 | 0.0 | 0.00 | 0.12 | 0.12 | 1009.0 | ||
| 20260507093022 | 0 | 0.0 | 0.0 | 0.00 | 0.12 | 0.12 | 1009.0 | ||
| 20260507092904 | 0 | 0.0 | 0.0 | 0.00 | 0.12 | 0.12 | 1008.9 | ||
| 20260507092808 | 0 | 0.0 | 0.0 | 0.00 | 0.12 | 0.12 | 1008.9 | ||
| 20260507092712 | 0 | 0.0 | 0.0 | 0.00 | 0.12 | 0.12 | 1009.0 | ||
| 20260507092615 | 0 | 0.0 | 0.0 | 0.00 | 0.12 | 0.12 | 1009.0 | ||
| 20260507092502 | 0 | 0.0 | 0.0 | 0.00 | 0.12 | 0.12 | 1009.0 | ||
| 20260507092405 | 0 | 0.0 | 0.0 | 0.00 | 0.12 | 0.12 | 1009.0 | ||
| 20260507092308 | 0 | 0.0 | 0.0 | 0.00 | 0.12 | 0.12 | 1008.9 | ||
| 20260507092232 | 0 | 0.0 | 0.0 | 0.00 | 0.12 | 0.12 | 1008.9 | ||
| 20260507092055 | 0 | 0.0 | 0.0 | 0.00 | 0.12 | 0.12 | 1008.9 | ||
| 20260507092018 | 0 | 0.0 | 0.0 | 0.00 | 0.12 | 0.12 | 1008.9 | ||
| 20260507091900 | 0 | 0.0 | 0.0 | 0.00 | 0.12 | 0.12 | 1008.9 | ||
| 20260507091824 | 0 | 0.0 | 0.0 | 0.00 | 0.12 | 0.12 | 1008.9 | ||
| 20260507091744 | 0 | 0.0 | 0.0 | 0.00 | 0.12 | 0.12 | 1008.9 | ||
| 20260507091707 | 0 | 0.0 | 0.0 | 0.00 | 0.12 | 0.12 | 1008.8 | ||
| 20260507091556 | 0 | 0.0 | 0.0 | 0.00 | 0.12 | 0.12 | 1008.8 | ||
| 20260507091343 | 0 | 0.0 | 0.0 | 0.00 | 0.12 | 0.12 | 1008.9 | ||
| 20260507091212 | 0 | 0.0 | 0.0 | 0.00 | 0.12 | 0.12 | 1008.8 | ||
| 20260507091100 | 0 | 0.0 | 0.0 | 0.00 | 0.12 | 0.12 | 1008.8 | ||
| 20260507091002 | 0 | 0.0 | 0.0 | 0.00 | 0.12 | 0.12 | 1008.7 | ||
| 20260507090926 | 0 | 0.0 | 0.0 | 0.00 | 0.12 | 0.12 | 1008.7 | ||
| 20260507090829 | 0 | 0.0 | 0.0 | 0.00 | 0.12 | 0.12 | 1008.7 | ||
| 20260507090655 | 0 | 0.0 | 0.0 | 0.00 | 0.12 | 0.12 | 1008.8 | ||
| 20260507090600 | 0 | 0.0 | 0.0 | 0.00 | 0.12 | 0.12 | 1008.8 | ||
| 20260507090502 | 0 | 0.0 | 0.0 | 0.00 | 0.12 | 0.12 | 1008.8 | ||
| 20260507090405 | 0 | 0.0 | 0.0 | 0.00 | 0.12 | 0.12 | 1008.9 | ||
| 20260507090309 | 0 | 0.0 | 0.0 | 0.00 | 0.12 | 0.12 | 1008.9 | ||
| 20260507090233 | 0 | 0.0 | 0.0 | 0.00 | 0.12 | 0.12 | 1008.9 | ||
| 20260507090130 | 0 | 0.0 | 0.0 | 0.00 | 0.12 | 0.12 | 1008.8 | ||
| 20260507085955 | 0 | 0.0 | 0.0 | 0.00 | 0.12 | 0.12 | 1008.7 | ||
| 20260507085918 | 0 | 0.0 | 0.0 | 0.00 | 0.12 | 0.12 | 1008.7 | ||
| 20260507085821 | 0 | 0.0 | 0.0 | 0.00 | 0.12 | 0.12 | 1008.6 | ||
| 20260507085704 | 0 | 0.0 | 0.0 | 0.00 | 0.12 | 0.12 | 1008.5 | ||
| 20260507085608 | 0 | 0.0 | 0.0 | 0.00 | 0.12 | 0.12 | 1008.5 | ||
| 20260507085531 | 0 | 0.0 | 0.0 | 0.00 | 0.12 | 0.12 | 1008.4 | ||
| 20260507085413 | 0 | 0.0 | 0.0 | 0.00 | 0.12 | 0.12 | 1008.4 | ||
| 20260507084748 | 0 | 0.0 | 0.0 | 0.00 | 0.12 | 0.12 | 1008.6 | ||
| 20260507084557 | 0 | 0.0 | 0.0 | 0.00 | 0.12 | 0.12 | 1008.6 | ||
| 20260507084459 | 0 | 0.0 | 0.0 | 0.01 | 0.12 | 0.12 | 1008.8 | ||
| 20260507084402 | 0 | 0.0 | 0.0 | 0.01 | 0.12 | 0.12 | 1008.9 | ||
| 20260507084310 | 0 | 0.0 | 0.0 | 0.01 | 0.12 | 0.12 | 1008.9 | ||
| 20260507084214 | 0 | 0.0 | 0.0 | 0.01 | 0.12 | 0.12 | 1008.9 | ||
| 20260507084058 | 0 | 0.0 | 0.0 | 0.01 | 0.12 | 0.12 | 1008.8 | ||
| 20260507084000 | 0 | 0.0 | 0.0 | 0.02 | 0.12 | 0.12 | 1008.9 | ||
| 20260507083904 | 0 | 0.0 | 0.0 | 0.02 | 0.12 | 0.12 | 1008.8 | ||
| 20260507083808 | 0 | 0.0 | 0.0 | 0.03 | 0.12 | 0.12 | 1008.7 | ||
| 20260507083655 | 0 | 0.0 | 0.0 | 0.03 | 0.12 | 0.12 | 1008.8 | ||
| 20260507083558 | 0 | 0.0 | 0.0 | 0.03 | 0.12 | 0.12 | 1008.8 | ||
| 20260507083501 | 0 | 0.0 | 0.0 | 0.04 | 0.12 | 0.12 | 1008.8 | ||
| 20260507083404 | 0 | 0.0 | 0.0 | 0.04 | 0.12 | 0.12 | 1008.8 | ||
| 20260507083308 | 0 | 0.0 | 0.0 | 0.04 | 0.12 | 0.12 | 1008.8 | ||
| 20260507083211 | 0 | 0.0 | 0.0 | 0.05 | 0.12 | 0.12 | 1008.8 | ||
| 20260507083120 | 0 | 0.0 | 0.0 | 0.05 | 0.12 | 0.12 | 1008.8 | ||
| 20260507083022 | 0 | 0.0 | 0.0 | 0.05 | 0.12 | 0.12 | 1008.8 | ||
| 20260507082925 | 0 | 0.0 | 0.0 | 0.06 | 0.12 | 0.12 | 1008.8 | ||
| 20260507082848 | 0 | 0.0 | 0.0 | 0.06 | 0.12 | 0.12 | 1008.9 | ||
| 20260507082750 | 0 | 0.0 | 0.0 | 0.06 | 0.12 | 0.12 | 1008.8 | ||
| 20260507082631 | 0 | 0.0 | 0.0 | 0.06 | 0.12 | 0.12 | 1008.9 | ||
| 20260507082530 | 0 | 0.0 | 0.0 | 0.07 | 0.12 | 0.12 | 1008.9 | ||
| 20260507082055 | 0 | 0.0 | 0.0 | 0.08 | 0.12 | 0.12 | 1008.6 | ||
| 20260507082002 | 0 | 0.0 | 0.0 | 0.08 | 0.12 | 0.12 | 1008.6 | ||
| 20260507081905 | 0 | 0.0 | 0.0 | 0.08 | 0.12 | 0.12 | 1008.7 | ||
| 20260507081809 | 0 | 0.0 | 0.0 | 0.08 | 0.12 | 0.12 | 1008.6 | ||
| 20260507081713 | 0 | 0.0 | 0.0 | 0.08 | 0.12 | 0.12 | 1008.6 | ||
| 20260507081556 | 0 | 0.0 | 0.0 | 0.08 | 0.12 | 0.12 | 1008.6 | ||
| 20260507081458 | 0 | 0.0 | 0.0 | 0.08 | 0.12 | 0.12 | 1008.6 | ||
| 20260507081422 | 0 | 0.0 | 0.0 | 0.08 | 0.12 | 0.12 | 1008.5 | ||
| 20260507081308 | 0 | 0.0 | 0.0 | 0.08 | 0.12 | 0.12 | 1008.4 | ||
| 20260507081212 | 0 | 0.0 | 0.0 | 0.08 | 0.12 | 0.12 | 1008.4 | ||
| 20260507081056 | 0 | 0.0 | 0.0 | 0.08 | 0.12 | 0.12 | 1008.4 | ||
| 20260507081019 | 0 | 0.0 | 0.0 | 0.08 | 0.12 | 0.12 | 1008.5 | ||
| 20260507080922 | 0 | 0.0 | 0.0 | 0.08 | 0.12 | 0.12 | 1008.6 | ||
| 20260507080805 | 0 | 0.0 | 0.0 | 0.08 | 0.12 | 0.12 | 1008.6 | ||
| 20260507080708 | 0 | 0.0 | 0.0 | 0.08 | 0.12 | 0.12 | 1008.7 | ||
| 20260507080555 | 0 | 0.0 | 0.0 | 0.08 | 0.12 | 0.12 | 1008.7 | ||
| 20260507080458 | 0 | 0.0 | 0.0 | 0.08 | 0.12 | 0.12 | 1008.7 | ||
| 20260507080401 | 0 | 0.0 | 0.0 | 0.08 | 0.12 | 0.12 | 1008.8 | ||
| 20260507080022 | 49 | 70 | 0.9 | 7.0 | 0.08 | 0.12 | 0.12 | 98 | 1009.0 |
| 20260507075901 | 49 | 70 | 0.9 | 7.0 | 0.08 | 0.12 | 0.12 | 98 | 1009.1 |
| 20260507075806 | 49 | 70 | 0.9 | 7.0 | 0.08 | 0.12 | 0.12 | 98 | 1009.1 |
| 20260507075709 | 49 | 70 | 0.9 | 7.0 | 0.08 | 0.12 | 0.12 | 98 | 1009.1 |
| 20260507075614 | 49 | 70 | 0.9 | 7.0 | 0.08 | 0.12 | 0.12 | 98 | 1009.0 |
| 20260507075456 | 49 | 70 | 0.9 | 7.0 | 0.08 | 0.12 | 0.12 | 98 | 1009.0 |
| 20260507075400 | 49 | 70 | 0.9 | 7.0 | 0.08 | 0.12 | 0.12 | 98 | 1008.8 |
| 20260507075306 | 50 | 137 | 0.9 | 7.0 | 0.08 | 0.12 | 0.12 | 94 | 1008.8 |
| 20260507075211 | 50 | 82 | 0.0 | 2.6 | 0.08 | 0.12 | 0.12 | 94 | 1008.8 |
| 20260507075114 | 50 | 82 | 0.0 | 2.6 | 0.08 | 0.12 | 0.12 | 94 | 1008.9 |
| 20260507074957 | 50 | 108 | 0.0 | 2.6 | 0.08 | 0.12 | 0.12 | 94 | 1008.9 |
| 20260507074900 | 50 | 108 | 0.0 | 2.6 | 0.08 | 0.12 | 0.12 | 94 | 1008.9 |
| 20260507074804 | 51 | 108 | 0.9 | 2.6 | 0.08 | 0.12 | 0.12 | 94 | 1008.9 |
| 20260507074727 | 51 | 108 | 0.9 | 2.6 | 0.08 | 0.12 | 0.12 | 93 | 1008.9 |
| 20260507074611 | 51 | 108 | 0.0 | 2.6 | 0.07 | 0.11 | 0.11 | 93 | 1008.8 |
| 20260507074457 | 51 | 62 | 0.0 | 8.7 | 0.07 | 0.11 | 0.11 | 93 | 1008.6 |
| 20260507074400 | 51 | 63 | 0.0 | 8.7 | 0.07 | 0.11 | 0.11 | 93 | 1008.5 |
| 20260507074304 | 51 | 62 | 0.9 | 8.7 | 0.07 | 0.11 | 0.11 | 93 | 1008.6 |
| 20260507074208 | 51 | 131 | 0.9 | 8.7 | 0.07 | 0.11 | 0.11 | 92 | 1008.6 |
| 20260507074111 | 51 | 100 | 0.0 | 8.7 | 0.06 | 0.10 | 0.10 | 92 | 1008.8 |
| 20260507073958 | 52 | 100 | 0.9 | 8.7 | 0.06 | 0.10 | 0.10 | 92 | 1008.8 |
| 20260507073901 | 52 | 146 | 1.7 | 8.7 | 0.06 | 0.10 | 0.10 | 92 | 1008.9 |
| 20260507073805 | 52 | 142 | 2.6 | 8.7 | 0.05 | 0.09 | 0.09 | 92 | 1009.0 |
| 20260507073708 | 52 | 120 | 1.7 | 8.7 | 0.05 | 0.09 | 0.09 | 92 | 1009.0 |
| 20260507073613 | 52 | 158 | 0.9 | 5.2 | 0.04 | 0.08 | 0.08 | 92 | 1008.9 |
| 20260507073455 | 52 | 123 | 0.9 | 5.2 | 0.04 | 0.08 | 0.08 | 92 | 1008.7 |
| 20260507073402 | 53 | 105 | 0.9 | 6.1 | 0.04 | 0.08 | 0.08 | 92 | 1008.6 |
| 20260507073306 | 53 | 115 | 0.9 | 5.2 | 0.04 | 0.08 | 0.08 | 92 | 1008.7 |
| 20260507073209 | 53 | 101 | 1.7 | 5.2 | 0.03 | 0.07 | 0.07 | 92 | 1008.8 |
| 20260507073113 | 53 | 105 | 1.7 | 5.2 | 0.03 | 0.07 | 0.07 | 91 | 1008.7 |
| 20260507072955 | 53 | 135 | 0.9 | 5.2 | 0.02 | 0.06 | 0.06 | 91 | 1008.6 |
| 20260507072859 | 53 | 90 | 0.9 | 5.2 | 0.02 | 0.06 | 0.06 | 91 | 1008.4 |
| 20260507072822 | 53 | 168 | 0.9 | 4.3 | 0.02 | 0.06 | 0.06 | 91 | 1008.4 |
| 20260507072709 | 53 | 100 | 0.9 | 4.3 | 0.01 | 0.05 | 0.05 | 90 | 1008.3 |
| 20260507072614 | 53 | 103 | 0.9 | 4.3 | 0.01 | 0.05 | 0.05 | 90 | 1008.2 |
| 20260507072456 | 53 | 106 | 0.9 | 4.3 | 0.01 | 0.05 | 0.05 | 90 | 1008.0 |
| 20260507072359 | 53 | 108 | 0.9 | 4.3 | 0.00 | 0.04 | 0.04 | 90 | 1008.0 |
| 20260507072306 | 53 | 115 | 0.0 | 4.3 | 0.00 | 0.04 | 0.04 | 90 | 1007.8 |
| 20260507072227 | 53 | 120 | 0.9 | 4.3 | 0.00 | 0.04 | 0.04 | 90 | 1007.7 |
| 20260507072114 | 54 | 129 | 0.9 | 4.3 | 0.00 | 0.04 | 0.04 | 90 | 1007.7 |
| 20260507071957 | 54 | 110 | 0.9 | 4.3 | 0.00 | 0.04 | 0.04 | 90 | 1007.6 |
| 20260507071920 | 54 | 123 | 0.9 | 3.5 | 0.00 | 0.04 | 0.04 | 90 | 1007.5 |
| 20260507071803 | 54 | 96 | 0.9 | 2.6 | 0.00 | 0.04 | 0.04 | 90 | 1007.4 |
| 20260507071707 | 54 | 104 | 0.0 | 2.6 | 0.00 | 0.04 | 0.04 | 90 | 1007.4 |
| 20260507071611 | 54 | 106 | 0.0 | 2.6 | 0.00 | 0.04 | 0.04 | 90 | 1007.5 |
| 20260507071457 | 54 | 186 | 0.0 | 4.3 | 0.00 | 0.04 | 0.04 | 90 | 1007.6 |
| 20260507071421 | 54 | 123 | 0.0 | 4.3 | 0.00 | 0.04 | 0.04 | 90 | 1007.7 |
| 20260507071324 | 54 | 125 | 0.0 | 4.3 | 0.00 | 0.04 | 0.04 | 90 | 1007.6 |
| 20260507071206 | 54 | 125 | 0.0 | 4.3 | 0.00 | 0.04 | 0.04 | 90 | 1007.7 |
| 20260507071130 | 54 | 113 | 0.0 | 4.3 | 0.00 | 0.04 | 0.04 | 90 | 1007.6 |
| 20260507071012 | 54 | 111 | 0.0 | 4.3 | 0.00 | 0.04 | 0.04 | 90 | 1007.6 |
| 20260507070855 | 54 | 82 | 0.0 | 4.3 | 0.00 | 0.04 | 0.04 | 90 | 1007.5 |
| 20260507070759 | 54 | 106 | 0.9 | 4.3 | 0.00 | 0.04 | 0.04 | 90 | 1007.5 |
| 20260507070726 | 54 | 93 | 0.9 | 4.3 | 0.00 | 0.04 | 0.04 | 90 | 1007.5 |
| 20260507070610 | 54 | 111 | 0.0 | 4.3 | 0.00 | 0.04 | 0.04 | 91 | 1007.4 |
| 20260507070512 | 54 | 123 | 0.0 | 4.3 | 0.00 | 0.04 | 0.04 | 91 | 1007.4 |
| 20260507070356 | 54 | 122 | 0.0 | 4.3 | 0.00 | 0.04 | 0.04 | 91 | 1007.5 |
| 20260507070259 | 54 | 123 | 0.0 | 4.3 | 0.00 | 0.04 | 0.04 | 91 | 1007.6 |
| 20260507070202 | 54 | 117 | 1.7 | 4.3 | 0.00 | 0.04 | 0.04 | 91 | 1007.7 |
| 20260507070120 | 54 | 118 | 1.7 | 4.3 | 0.00 | 0.04 | 0.04 | 91 | 1007.7 |
| 20260507070010 | 54 | 93 | 0.9 | 4.3 | 0.00 | 0.04 | 0.04 | 91 | 1007.7 |
| 20260507065909 | 55 | 108 | 0.0 | 2.6 | 0.00 | 0.04 | 0.04 | 91 | 1007.7 |
| 20260507065813 | 55 | 105 | 0.0 | 3.5 | 0.00 | 0.04 | 0.04 | 91 | 1007.6 |
| 20260507065656 | 55 | 112 | 0.0 | 3.5 | 0.00 | 0.04 | 0.04 | 92 | 1007.5 |
| 20260507065600 | 55 | 113 | 0.0 | 3.5 | 0.00 | 0.04 | 0.04 | 91 | 1007.5 |
| 20260507065507 | 55 | 113 | 0.0 | 3.5 | 0.00 | 0.04 | 0.04 | 91 | 1007.5 |
| 20260507065431 | 55 | 115 | 0.0 | 3.5 | 0.00 | 0.04 | 0.04 | 91 | 1007.5 |
| 20260507065313 | 55 | 112 | 0.9 | 3.5 | 0.00 | 0.04 | 0.04 | 91 | 1007.6 |
| 20260507065156 | 55 | 137 | 0.9 | 5.2 | 0.00 | 0.04 | 0.04 | 92 | 1007.6 |
| 20260507065100 | 55 | 103 | 0.0 | 5.2 | 0.00 | 0.04 | 0.04 | 92 | 1007.7 |
| 20260507065002 | 55 | 103 | 0.9 | 5.2 | 0.00 | 0.04 | 0.04 | 92 | 1007.6 |
| 20260507064927 | 55 | 160 | 0.0 | 5.2 | 0.00 | 0.04 | 0.04 | 92 | 1007.7 |
| 20260507064813 | 55 | 89 | 0.0 | 5.2 | 0.00 | 0.04 | 0.04 | 92 | 1007.7 |
| 20260507064656 | 55 | 89 | 0.0 | 5.2 | 0.00 | 0.04 | 0.04 | 92 | 1007.7 |
| 20260507064600 | 55 | 89 | 0.0 | 5.2 | 0.00 | 0.04 | 0.04 | 92 | 1007.7 |
| 20260507064502 | 55 | 149 | 0.9 | 5.2 | 0.00 | 0.04 | 0.04 | 92 | 1007.6 |
| 20260507064406 | 55 | 148 | 0.9 | 5.2 | 0.00 | 0.04 | 0.04 | 92 | 1007.6 |
| 20260507064330 | 55 | 75 | 0.0 | 3.5 | 0.00 | 0.04 | 0.04 | 92 | 1007.6 |
| 20260507064156 | 55 | 97 | 0.0 | 3.5 | 0.00 | 0.04 | 0.04 | 92 | 1007.7 |
| 20260507064121 | 55 | 97 | 0.9 | 3.5 | 0.00 | 0.04 | 0.04 | 92 | 1007.7 |
| 20260507064002 | 55 | 100 | 1.7 | 3.5 | 0.00 | 0.04 | 0.04 | 92 | 1007.7 |
| 20260507063906 | 55 | 137 | 1.7 | 3.5 | 0.00 | 0.04 | 0.04 | 92 | 1007.6 |
| 20260507063809 | 55 | 101 | 0.9 | 3.5 | 0.00 | 0.04 | 0.04 | 92 | 1007.6 |
| 20260507063712 | 55 | 105 | 0.0 | 2.6 | 0.00 | 0.04 | 0.04 | 92 | 1007.6 |
| 20260507063616 | 55 | 51 | 0.0 | 2.6 | 0.00 | 0.04 | 0.04 | 92 | 1007.6 |
| 20260507063502 | 55 | 16 | 0.0 | 2.6 | 0.00 | 0.04 | 0.04 | 92 | 1007.7 |
| 20260507063405 | 55 | 108 | 0.0 | 2.6 | 0.00 | 0.04 | 0.04 | 92 | 1007.7 |
| 20260507063309 | 55 | 141 | 0.0 | 2.6 | 0.00 | 0.04 | 0.04 | 92 | 1007.7 |
| 20260507063212 | 55 | 79 | 0.0 | 2.6 | 0.00 | 0.04 | 0.04 | 92 | 1007.7 |
| 20260507063057 | 55 | 108 | 0.9 | 2.6 | 0.00 | 0.04 | 0.04 | 92 | 1007.7 |
| 20260507062959 | 55 | 142 | 0.9 | 2.6 | 0.00 | 0.04 | 0.04 | 92 | 1007.8 |
| 20260507062906 | 55 | 140 | 0.0 | 2.6 | 0.00 | 0.04 | 0.04 | 93 | 1007.8 |
| 20260507062810 | 55 | 101 | 0.0 | 2.6 | 0.00 | 0.04 | 0.04 | 93 | 1007.7 |
| 20260507062714 | 55 | 101 | 0.0 | 2.6 | 0.00 | 0.04 | 0.04 | 93 | 1007.7 |
| 20260507062557 | 55 | 58 | 0.0 | 3.5 | 0.00 | 0.04 | 0.04 | 93 | 1007.6 |
| 20260507062500 | 56 | 89 | 0.9 | 3.5 | 0.00 | 0.04 | 0.04 | 93 | 1007.7 |
| 20260507062403 | 56 | 114 | 0.9 | 4.3 | 0.00 | 0.04 | 0.04 | 93 | 1007.7 |
| 20260507062311 | 56 | 101 | 0.9 | 4.3 | 0.00 | 0.04 | 0.04 | 93 | 1007.7 |
| 20260507062154 | 56 | 108 | 0.0 | 4.3 | 0.00 | 0.04 | 0.04 | 93 | 1007.7 |
| 20260507062119 | 56 | 100 | 0.0 | 4.3 | 0.00 | 0.04 | 0.04 | 93 | 1007.8 |
| 20260507062000 | 56 | 76 | 0.0 | 4.3 | 0.00 | 0.04 | 0.04 | 93 | 1007.8 |
| 20260507061904 | 56 | 76 | 0.9 | 4.3 | 0.00 | 0.04 | 0.04 | 93 | 1007.7 |
| 20260507061807 | 56 | 122 | 0.9 | 4.3 | 0.00 | 0.04 | 0.04 | 93 | 1007.7 |
| 20260507061731 | 56 | 113 | 0.9 | 4.3 | 0.00 | 0.04 | 0.04 | 93 | 1007.6 |
| 20260507061557 | 56 | 127 | 1.7 | 4.3 | 0.00 | 0.04 | 0.04 | 93 | 1007.5 |
| 20260507061500 | 56 | 113 | 0.9 | 3.5 | 0.00 | 0.04 | 0.04 | 93 | 1007.5 |
| 20260507061404 | 56 | 104 | 0.9 | 3.5 | 0.00 | 0.04 | 0.04 | 93 | 1007.5 |
| 20260507061307 | 56 | 74 | 0.9 | 3.5 | 0.00 | 0.04 | 0.04 | 94 | 1007.7 |
| 20260507061211 | 56 | 112 | 0.0 | 3.5 | 0.00 | 0.04 | 0.04 | 94 | 1007.7 |
| 20260507061114 | 56 | 78 | 0.0 | 3.5 | 0.00 | 0.04 | 0.04 | 94 | 1007.7 |
| 20260507061000 | 56 | 91 | 0.0 | 2.6 | 0.00 | 0.04 | 0.04 | 94 | 1007.7 |
| 20260507060925 | 56 | 91 | 0.0 | 2.6 | 0.00 | 0.04 | 0.04 | 94 | 1007.7 |
| 20260507060808 | 56 | 123 | 0.0 | 2.6 | 0.00 | 0.04 | 0.04 | 94 | 1007.8 |
| 20260507060711 | 56 | 69 | 0.0 | 4.3 | 0.00 | 0.04 | 0.04 | 94 | 1007.8 |
| 20260507060556 | 56 | 69 | 0.0 | 5.2 | 0.00 | 0.04 | 0.04 | 94 | 1007.9 |
| 20260507060458 | 56 | 69 | 0.0 | 5.2 | 0.00 | 0.04 | 0.04 | 94 | 1007.8 |
| 20260507060405 | 56 | 100 | 0.0 | 5.2 | 0.00 | 0.04 | 0.04 | 94 | 1007.9 |
| 20260507060309 | 56 | 106 | 0.0 | 5.2 | 0.00 | 0.04 | 0.04 | 93 | 1007.8 |
| 20260507060213 | 56 | 106 | 0.0 | 5.2 | 0.00 | 0.04 | 0.04 | 93 | 1007.8 |
| 20260507060127 | 56 | 72 | 0.0 | 5.2 | 0.00 | 0.04 | 0.04 | 93 | 1007.8 |
| 20260507060013 | 56 | 67 | 2.6 | 5.2 | 0.00 | 0.04 | 0.04 | 93 | 1007.9 |
| 20260507055856 | 56 | 101 | 2.6 | 5.2 | 0.00 | 0.04 | 0.04 | 93 | 1007.8 |
| 20260507055804 | 56 | 120 | 0.9 | 4.3 | 0.00 | 0.04 | 0.04 | 93 | 1007.9 |
| 20260507055707 | 56 | 85 | 0.0 | 4.3 | 0.00 | 0.04 | 0.04 | 93 | 1007.9 |
| 20260507055611 | 56 | 112 | 0.0 | 4.3 | 0.00 | 0.04 | 0.04 | 93 | 1007.9 |
| 20260507055513 | 56 | 140 | 0.0 | 4.3 | 0.00 | 0.04 | 0.04 | 93 | 1008.0 |
| 20260507055356 | 56 | 118 | 0.0 | 4.3 | 0.00 | 0.04 | 0.04 | 93 | 1008.0 |
| 20260507055300 | 56 | 128 | 0.9 | 4.3 | 0.00 | 0.04 | 0.04 | 93 | 1008.0 |
| 20260507055207 | 56 | 108 | 0.9 | 4.3 | 0.00 | 0.04 | 0.04 | 93 | 1008.1 |
| 20260507055111 | 57 | 96 | 0.0 | 2.6 | 0.00 | 0.04 | 0.04 | 93 | 1008.1 |
| 20260507055013 | 57 | 96 | 0.0 | 2.6 | 0.00 | 0.04 | 0.04 | 93 | 1008.1 |
| 20260507054857 | 57 | 102 | 0.0 | 2.6 | 0.00 | 0.04 | 0.04 | 93 | 1008.2 |
| 20260507054800 | 57 | 100 | 0.0 | 2.6 | 0.00 | 0.04 | 0.04 | 93 | 1008.2 |
| 20260507054724 | 57 | 103 | 0.0 | 2.6 | 0.00 | 0.04 | 0.04 | 93 | 1008.2 |
| 20260507054628 | 57 | 103 | 0.9 | 2.6 | 0.00 | 0.04 | 0.04 | 93 | 1008.2 |
| 20260507054514 | 57 | 103 | 0.9 | 2.6 | 0.00 | 0.04 | 0.04 | 93 | 1008.1 |
| 20260507054356 | 57 | 76 | 0.0 | 2.6 | 0.00 | 0.04 | 0.04 | 93 | 1008.1 |
| 20260507054300 | 57 | 76 | 0.0 | 2.6 | 0.00 | 0.04 | 0.04 | 93 | 1008.2 |
| 20260507054223 | 57 | 77 | 0.0 | 2.6 | 0.00 | 0.04 | 0.04 | 93 | 1008.1 |
| 20260507054103 | 57 | 81 | 0.9 | 2.6 | 0.00 | 0.04 | 0.04 | 93 | 1008.2 |
| 20260507054026 | 57 | 91 | 0.0 | 5.2 | 0.00 | 0.04 | 0.04 | 94 | 1008.1 |
| 20260507053909 | 57 | 114 | 0.0 | 5.2 | 0.00 | 0.04 | 0.04 | 94 | 1008.1 |
| 20260507053816 | 57 | 96 | 0.0 | 5.2 | 0.00 | 0.04 | 0.04 | 94 | 1008.0 |
| 20260507053719 | 57 | 91 | 0.0 | 5.2 | 0.00 | 0.04 | 0.04 | 94 | 1008.0 |
| 20260507053602 | 57 | 115 | 0.0 | 5.2 | 0.00 | 0.04 | 0.04 | 94 | 1008.0 |
| 20260507053504 | 57 | 113 | 0.9 | 5.2 | 0.00 | 0.04 | 0.04 | 94 | 1008.0 |
| 20260507053408 | 57 | 120 | 0.9 | 5.2 | 0.00 | 0.04 | 0.04 | 94 | 1008.1 |
| 20260507053311 | 57 | 83 | 0.9 | 5.2 | 0.00 | 0.04 | 0.04 | 94 | 1008.1 |
| 20260507053155 | 57 | 131 | 0.9 | 5.2 | 0.00 | 0.04 | 0.04 | 94 | 1008.2 |
| 20260507053103 | 57 | 92 | 0.9 | 4.3 | 0.00 | 0.04 | 0.04 | 94 | 1008.1 |
| 20260507053026 | 57 | 108 | 0.0 | 4.3 | 0.00 | 0.04 | 0.04 | 95 | 1008.3 |
| 20260507052929 | 57 | 117 | 0.0 | 4.3 | 0.00 | 0.04 | 0.04 | 95 | 1008.2 |
| 20260507052811 | 57 | 117 | 0.9 | 4.3 | 0.00 | 0.04 | 0.04 | 95 | 1008.2 |
| 20260507052654 | 57 | 117 | 0.9 | 5.2 | 0.00 | 0.04 | 0.04 | 95 | 1008.2 |
| 20260507052558 | 57 | 108 | 0.0 | 3.5 | 0.00 | 0.04 | 0.04 | 95 | 1008.2 |
| 20260507052521 | 57 | 108 | 0.9 | 3.5 | 0.00 | 0.04 | 0.04 | 95 | 1008.2 |
| 20260507052408 | 57 | 148 | 0.9 | 3.5 | 0.00 | 0.04 | 0.04 | 95 | 1008.1 |
| 20260507052311 | 58 | 110 | 0.0 | 2.6 | 0.00 | 0.04 | 0.04 | 96 | 1008.1 |
| 20260507052154 | 58 | 79 | 0.0 | 2.6 | 0.00 | 0.04 | 0.04 | 96 | 1008.2 |
| 20260507052058 | 58 | 79 | 0.0 | 3.5 | 0.00 | 0.04 | 0.04 | 96 | 1008.2 |
| 20260507052000 | 58 | 83 | 0.0 | 3.5 | 0.00 | 0.04 | 0.04 | 96 | 1008.3 |
| 20260507051903 | 58 | 89 | 0.0 | 3.5 | 0.00 | 0.04 | 0.04 | 96 | 1008.3 |
| 20260507051810 | 58 | 118 | 0.0 | 3.5 | 0.00 | 0.04 | 0.04 | 96 | 1008.3 |
| 20260507051714 | 58 | 98 | 0.0 | 3.5 | 0.00 | 0.04 | 0.04 | 96 | 1008.3 |
| 20260507051558 | 58 | 97 | 0.0 | 3.5 | 0.00 | 0.04 | 0.04 | 96 | 1008.3 |
| 20260507051521 | 58 | 98 | 0.9 | 3.5 | 0.00 | 0.04 | 0.04 | 96 | 1008.2 |
| 20260507051403 | 58 | 97 | 0.9 | 3.5 | 0.00 | 0.04 | 0.04 | 97 | 1008.2 |
| 20260507051307 | 58 | 115 | 0.9 | 3.5 | 0.00 | 0.04 | 0.04 | 97 | 1008.1 |
| 20260507051154 | 58 | 105 | 0.0 | 0.9 | 0.00 | 0.04 | 0.04 | 97 | 1008.0 |
| 20260507051058 | 58 | 106 | 0.0 | 0.9 | 0.00 | 0.04 | 0.04 | 97 | 1008.0 |
| 20260507050959 | 58 | 105 | 0.0 | 0.9 | 0.00 | 0.04 | 0.04 | 97 | 1008.1 |
| 20260507050903 | 58 | 106 | 0.0 | 2.6 | 0.00 | 0.04 | 0.04 | 97 | 1008.0 |
| 20260507050806 | 58 | 108 | 0.0 | 2.6 | 0.00 | 0.04 | 0.04 | 97 | 1008.0 |
| 20260507050710 | 58 | 107 | 0.0 | 2.6 | 0.00 | 0.04 | 0.04 | 97 | 1008.0 |
| 20260507050614 | 58 | 108 | 0.0 | 2.6 | 0.00 | 0.04 | 0.04 | 97 | 1008.1 |
| 20260507050501 | 58 | 108 | 0.0 | 2.6 | 0.00 | 0.04 | 0.04 | 97 | 1008.1 |
| 20260507050404 | 58 | 95 | 0.0 | 2.6 | 0.00 | 0.04 | 0.04 | 97 | 1008.1 |
| 20260507050308 | 58 | 94 | 0.0 | 2.6 | 0.00 | 0.04 | 0.04 | 97 | 1008.2 |
| 20260507050211 | 58 | 120 | 0.0 | 2.6 | 0.00 | 0.04 | 0.04 | 97 | 1008.2 |
| 20260507050146 | 58 | 159 | 0.0 | 2.6 | 0.00 | 0.04 | 0.04 | 97 | 1008.2 |
| 20260507050010 | 58 | 65 | 0.0 | 0.9 | 0.00 | 0.04 | 0.04 | 97 | 1008.2 |
| 20260507045857 | 58 | 65 | 0.0 | 0.9 | 0.00 | 0.04 | 0.04 | 97 | 1008.2 |
| 20260507045800 | 58 | 99 | 0.0 | 0.9 | 0.00 | 0.04 | 0.04 | 97 | 1008.2 |
| 20260507045724 | 58 | 74 | 0.0 | 0.9 | 0.00 | 0.04 | 0.04 | 97 | 1008.2 |
| 20260507045607 | 58 | 74 | 0.0 | 0.9 | 0.00 | 0.04 | 0.04 | 97 | 1008.2 |
| 20260507045530 | 58 | 74 | 0.0 | 1.7 | 0.00 | 0.04 | 0.04 | 97 | 1008.2 |
| 20260507045411 | 58 | 76 | 0.0 | 1.7 | 0.00 | 0.04 | 0.04 | 97 | 1008.2 |
| 20260507045335 | 58 | 76 | 0.0 | 1.7 | 0.00 | 0.04 | 0.04 | 97 | 1008.3 |
| 20260507045157 | 58 | 76 | 0.0 | 1.7 | 0.00 | 0.04 | 0.04 | 97 | 1008.2 |
| 20260507045106 | 58 | 76 | 0.0 | 1.7 | 0.00 | 0.04 | 0.04 | 97 | 1008.2 |
| 20260507045008 | 58 | 76 | 0.0 | 1.7 | 0.00 | 0.04 | 0.04 | 97 | 1008.2 |
| 20260507044912 | 58 | 46 | 0.0 | 1.7 | 0.00 | 0.04 | 0.04 | 97 | 1008.1 |
| 20260507044755 | 58 | 79 | 0.0 | 1.7 | 0.00 | 0.04 | 0.04 | 97 | 1008.1 |
| 20260507044719 | 58 | 77 | 0.0 | 1.7 | 0.00 | 0.04 | 0.04 | 97 | 1008.1 |
| 20260507044622 | 58 | 15 | 0.0 | 0.0 | 0.00 | 0.04 | 0.04 | 98 | 1008.1 |
| 20260507044524 | 58 | 15 | 0.0 | 0.0 | 0.00 | 0.04 | 0.04 | 98 | 1008.1 |
| 20260507044410 | 58 | 15 | 0.0 | 0.0 | 0.00 | 0.04 | 0.04 | 98 | 1008.0 |
| 20260507044313 | 58 | 10 | 0.0 | 0.9 | 0.00 | 0.04 | 0.04 | 98 | 1008.0 |
| 20260507044157 | 58 | 67 | 0.0 | 0.9 | 0.00 | 0.04 | 0.04 | 98 | 1008.0 |
| 20260507044101 | 58 | 67 | 0.0 | 0.9 | 0.00 | 0.04 | 0.04 | 98 | 1008.1 |
| 20260507044004 | 58 | 67 | 0.0 | 0.9 | 0.00 | 0.04 | 0.04 | 98 | 1008.0 |
| 20260507043928 | 58 | 67 | 0.0 | 0.9 | 0.00 | 0.04 | 0.04 | 97 | 1008.0 |
| 20260507043754 | 58 | 71 | 0.0 | 0.9 | 0.00 | 0.04 | 0.04 | 97 | 1007.9 |
| 20260507043657 | 58 | 71 | 0.0 | 0.9 | 0.00 | 0.04 | 0.04 | 97 | 1008.0 |
| 20260507043601 | 58 | 70 | 0.0 | 0.9 | 0.00 | 0.04 | 0.04 | 97 | 1007.9 |
| 20260507043503 | 58 | 70 | 0.0 | 0.9 | 0.00 | 0.04 | 0.04 | 98 | 1007.9 |
| 20260507043427 | 58 | 70 | 0.0 | 0.9 | 0.00 | 0.04 | 0.04 | 98 | 1008.0 |
| 20260507043310 | 58 | 71 | 0.0 | 0.0 | 0.00 | 0.04 | 0.04 | 98 | 1007.9 |
| 20260507043213 | 58 | 71 | 0.0 | 0.9 | 0.00 | 0.04 | 0.04 | 98 | 1007.9 |
| 20260507043101 | 58 | 70 | 0.0 | 0.9 | 0.00 | 0.04 | 0.04 | 97 | 1007.9 |
| 20260507043023 | 58 | 71 | 0.0 | 0.9 | 0.00 | 0.04 | 0.04 | 98 | 1008.0 |
| 20260507042906 | 58 | 64 | 0.0 | 0.9 | 0.00 | 0.04 | 0.04 | 98 | 1008.0 |
| 20260507042809 | 58 | 63 | 0.0 | 0.9 | 0.00 | 0.04 | 0.04 | 98 | 1008.0 |
| 20260507042713 | 58 | 63 | 0.0 | 0.9 | 0.00 | 0.04 | 0.04 | 98 | 1008.0 |
| 20260507042557 | 58 | 64 | 0.0 | 2.6 | 0.00 | 0.04 | 0.04 | 98 | 1008.0 |
| 20260507042504 | 58 | 64 | 0.0 | 2.6 | 0.00 | 0.04 | 0.04 | 98 | 1008.0 |
| 20260507042407 | 58 | 40 | 0.0 | 2.6 | 0.00 | 0.04 | 0.04 | 98 | 1008.0 |
| 20260507042311 | 58 | 72 | 0.0 | 2.6 | 0.00 | 0.04 | 0.04 | 98 | 1007.9 |
| 20260507042154 | 58 | 72 | 0.0 | 2.6 | 0.00 | 0.04 | 0.04 | 98 | 1007.9 |
| 20260507042057 | 58 | 72 | 0.0 | 3.5 | 0.00 | 0.04 | 0.04 | 98 | 1007.9 |
| 20260507042000 | 58 | 87 | 0.0 | 3.5 | 0.00 | 0.04 | 0.04 | 98 | 1007.9 |
| 20260507041907 | 58 | 87 | 0.9 | 3.5 | 0.00 | 0.04 | 0.04 | 98 | 1007.9 |
| 20260507041811 | 58 | 87 | 0.9 | 3.5 | 0.00 | 0.04 | 0.04 | 98 | 1007.9 |
| 20260507041654 | 58 | 61 | 0.0 | 3.5 | 0.00 | 0.04 | 0.04 | 98 | 1008.0 |
| 20260507041559 | 58 | 61 | 0.0 | 4.3 | 0.00 | 0.04 | 0.04 | 98 | 1008.0 |
| 20260507041522 | 58 | 60 | 0.0 | 5.2 | 0.00 | 0.04 | 0.04 | 98 | 1008.0 |
| 20260507041404 | 58 | 69 | 0.0 | 5.2 | 0.00 | 0.04 | 0.04 | 98 | 1008.0 |
| 20260507041307 | 58 | 69 | 0.0 | 5.2 | 0.00 | 0.04 | 0.04 | 98 | 1008.1 |
| 20260507041155 | 58 | 62 | 0.0 | 5.2 | 0.00 | 0.04 | 0.04 | 98 | 1008.1 |
| 20260507041058 | 58 | 61 | 0.0 | 5.2 | 0.00 | 0.04 | 0.04 | 98 | 1008.1 |
| 20260507041001 | 58 | 63 | 0.9 | 5.2 | 0.00 | 0.04 | 0.04 | 98 | 1008.1 |
| 20260507040905 | 58 | 62 | 0.9 | 5.2 | 0.00 | 0.04 | 0.04 | 98 | 1008.1 |
| 20260507040808 | 58 | 84 | 0.9 | 6.1 | 0.00 | 0.04 | 0.04 | 98 | 1008.1 |
| 20260507040655 | 58 | 72 | 0.9 | 6.1 | 0.00 | 0.04 | 0.04 | 98 | 1008.1 |
| 20260507040559 | 58 | 8 | 0.0 | 6.1 | 0.00 | 0.04 | 0.04 | 98 | 1008.1 |
| 20260507040501 | 58 | 100 | 0.9 | 6.1 | 0.00 | 0.04 | 0.04 | 98 | 1008.2 |
| 20260507040405 | 58 | 100 | 0.9 | 6.1 | 0.00 | 0.04 | 0.04 | 98 | 1008.2 |
| 20260507040329 | 58 | 82 | 0.9 | 6.1 | 0.00 | 0.04 | 0.04 | 98 | 1008.2 |
| 20260507040232 | 58 | 83 | 0.9 | 6.1 | 0.00 | 0.04 | 0.04 | 98 | 1008.2 |
| 20260507040125 | 58 | 91 | 0.9 | 6.1 | 0.00 | 0.04 | 0.04 | 98 | 1008.1 |
| 20260507035954 | 58 | 167 | 0.9 | 6.1 | 0.00 | 0.04 | 0.04 | 98 | 1008.1 |
| 20260507035858 | 58 | 78 | 0.0 | 1.7 | 0.00 | 0.04 | 0.04 | 98 | 1008.1 |
| 20260507035801 | 58 | 78 | 0.0 | 7.8 | 0.00 | 0.04 | 0.04 | 98 | 1008.1 |
| 20260507035705 | 58 | 77 | 0.0 | 7.8 | 0.00 | 0.04 | 0.04 | 98 | 1008.1 |
| 20260507035629 | 58 | 69 | 0.0 | 7.8 | 0.00 | 0.04 | 0.04 | 98 | 1008.0 |
| 20260507035531 | 58 | 89 | 0.0 | 7.8 | 0.00 | 0.04 | 0.04 | 98 | 1008.1 |
| 20260507035414 | 58 | 95 | 0.0 | 7.8 | 0.00 | 0.04 | 0.04 | 98 | 1008.1 |
| 20260507035302 | 58 | 96 | 0.0 | 7.8 | 0.00 | 0.04 | 0.04 | 98 | 1008.1 |
| 20260507035205 | 58 | 63 | 0.9 | 7.8 | 0.00 | 0.04 | 0.04 | 98 | 1008.1 |
| 20260507035129 | 58 | 111 | 1.7 | 7.8 | 0.00 | 0.04 | 0.04 | 98 | 1008.1 |
| 20260507035010 | 58 | 13 | 0.9 | 8.7 | 0.00 | 0.04 | 0.04 | 98 | 1008.1 |
| 20260507034914 | 58 | 76 | 0.0 | 3.5 | 0.00 | 0.04 | 0.04 | 98 | 1008.1 |
| 20260507034757 | 58 | 72 | 0.0 | 3.5 | 0.00 | 0.04 | 0.04 | 98 | 1008.2 |
| 20260507034700 | 58 | 90 | 0.0 | 3.5 | 0.00 | 0.04 | 0.04 | 98 | 1008.1 |
| 20260507034629 | 58 | 62 | 0.0 | 3.5 | 0.00 | 0.04 | 0.04 | 98 | 1008.1 |
| 20260507034511 | 58 | 62 | 0.0 | 3.5 | 0.00 | 0.04 | 0.04 | 98 | 1008.1 |
| 20260507034354 | 58 | 63 | 0.0 | 3.5 | 0.00 | 0.04 | 0.04 | 98 | 1008.1 |
| 20260507034257 | 58 | 79 | 0.9 | 3.5 | 0.00 | 0.04 | 0.04 | 98 | 1008.1 |
| 20260507034201 | 58 | 79 | 0.9 | 3.5 | 0.00 | 0.04 | 0.04 | 98 | 1008.1 |
| 20260507034105 | 58 | 22 | 0.9 | 3.5 | 0.00 | 0.04 | 0.04 | 98 | 1008.1 |
| 20260507034011 | 58 | 53 | 0.0 | 0.9 | 0.00 | 0.04 | 0.04 | 98 | 1008.2 |
| 20260507033854 | 58 | 72 | 0.0 | 2.6 | 0.00 | 0.04 | 0.04 | 98 | 1008.1 |
| 20260507033758 | 58 | 353 | 0.0 | 2.6 | 0.00 | 0.04 | 0.04 | 98 | 1008.2 |
| 20260507033701 | 58 | 41 | 0.0 | 2.6 | 0.00 | 0.04 | 0.04 | 98 | 1008.2 |
| 20260507033605 | 58 | 43 | 0.0 | 2.6 | 0.00 | 0.04 | 0.04 | 98 | 1008.2 |
| 20260507033508 | 58 | 57 | 0.0 | 2.6 | 0.00 | 0.04 | 0.04 | 98 | 1008.2 |
| 20260507033355 | 58 | 139 | 0.0 | 3.5 | 0.00 | 0.04 | 0.04 | 98 | 1008.3 |
| 20260507033318 | 57 | 53 | 0.0 | 3.5 | 0.00 | 0.04 | 0.04 | 98 | 1008.3 |
| 20260507033221 | 57 | 53 | 0.9 | 3.5 | 0.00 | 0.04 | 0.04 | 98 | 1008.4 |
| 20260507033104 | 57 | 50 | 0.9 | 3.5 | 0.00 | 0.04 | 0.04 | 98 | 1008.3 |
| 20260507033027 | 57 | 58 | 0.0 | 3.5 | 0.00 | 0.04 | 0.04 | 98 | 1008.3 |
| 20260507032910 | 57 | 69 | 0.0 | 3.5 | 0.00 | 0.04 | 0.04 | 98 | 1008.3 |
| 20260507032813 | 57 | 57 | 0.0 | 3.5 | 0.00 | 0.04 | 0.04 | 98 | 1008.3 |
| 20260507032701 | 57 | 52 | 0.9 | 3.5 | 0.00 | 0.04 | 0.04 | 98 | 1008.2 |
| 20260507032624 | 57 | 59 | 0.9 | 3.5 | 0.00 | 0.04 | 0.04 | 98 | 1008.2 |
| 20260507032506 | 57 | 86 | 0.0 | 3.5 | 0.00 | 0.04 | 0.04 | 98 | 1008.2 |
| 20260507032410 | 57 | 54 | 0.0 | 2.6 | 0.00 | 0.04 | 0.04 | 98 | 1008.1 |
| 20260507032313 | 57 | 58 | 0.0 | 2.6 | 0.00 | 0.04 | 0.04 | 98 | 1008.2 |
| 20260507032156 | 57 | 62 | 0.0 | 2.6 | 0.00 | 0.04 | 0.04 | 98 | 1008.1 |
| 20260507032121 | 57 | 63 | 0.0 | 2.6 | 0.00 | 0.04 | 0.04 | 98 | 1008.1 |
| 20260507032007 | 57 | 62 | 0.0 | 2.6 | 0.00 | 0.04 | 0.04 | 98 | 1008.0 |
| 20260507031910 | 57 | 63 | 0.0 | 2.6 | 0.00 | 0.04 | 0.04 | 98 | 1008.0 |
| 20260507031814 | 57 | 62 | 0.9 | 2.6 | 0.00 | 0.04 | 0.04 | 98 | 1008.0 |
| 20260507031657 | 57 | 63 | 0.9 | 2.6 | 0.00 | 0.04 | 0.04 | 98 | 1007.9 |
| 20260507031600 | 57 | 56 | 0.0 | 1.7 | 0.00 | 0.04 | 0.04 | 98 | 1008.0 |
| 20260507031503 | 57 | 50 | 0.0 | 1.7 | 0.00 | 0.04 | 0.04 | 98 | 1008.0 |
| 20260507031411 | 57 | 63 | 0.0 | 3.5 | 0.00 | 0.04 | 0.04 | 98 | 1008.0 |
| 20260507031314 | 57 | 62 | 0.0 | 3.5 | 0.00 | 0.04 | 0.04 | 98 | 1008.1 |
| 20260507031157 | 57 | 63 | 0.0 | 3.5 | 0.00 | 0.04 | 0.04 | 98 | 1008.0 |
| 20260507031101 | 57 | 101 | 0.0 | 3.5 | 0.00 | 0.04 | 0.04 | 98 | 1008.0 |
| 20260507031003 | 57 | 57 | 0.0 | 3.5 | 0.00 | 0.04 | 0.04 | 98 | 1008.1 |
| 20260507030908 | 57 | 59 | 0.0 | 3.5 | 0.00 | 0.04 | 0.04 | 98 | 1008.1 |
| 20260507030755 | 57 | 42 | 0.9 | 3.5 | 0.00 | 0.04 | 0.04 | 98 | 1008.0 |
| 20260507030719 | 57 | 65 | 0.9 | 3.5 | 0.00 | 0.04 | 0.04 | 98 | 1008.0 |
| 20260507030602 | 57 | 23 | 0.9 | 3.5 | 0.00 | 0.04 | 0.04 | 98 | 1008.0 |
| 20260507030504 | 57 | 64 | 0.0 | 2.6 | 0.00 | 0.04 | 0.04 | 98 | 1008.0 |
| 20260507030408 | 57 | 64 | 0.0 | 2.6 | 0.00 | 0.04 | 0.04 | 98 | 1007.9 |
| 20260507030311 | 57 | 64 | 0.0 | 2.6 | 0.00 | 0.04 | 0.04 | 98 | 1007.9 |
| 20260507030216 | 57 | 53 | 0.0 | 2.6 | 0.00 | 0.04 | 0.04 | 98 | 1007.9 |
| 20260507030113 | 57 | 63 | 0.0 | 2.6 | 0.00 | 0.04 | 0.04 | 98 | 1007.8 |
| 20260507025959 | 57 | 34 | 0.0 | 4.3 | 0.00 | 0.04 | 0.04 | 98 | 1007.8 |
| 20260507025902 | 57 | 33 | 0.9 | 4.3 | 0.00 | 0.04 | 0.04 | 98 | 1007.9 |
| 20260507025806 | 57 | 62 | 0.0 | 4.3 | 0.00 | 0.04 | 0.04 | 98 | 1007.9 |
| 20260507025709 | 57 | 42 | 0.0 | 7.0 | 0.00 | 0.04 | 0.04 | 98 | 1007.8 |
| 20260507025633 | 57 | 32 | 0.0 | 7.0 | 0.00 | 0.04 | 0.04 | 98 | 1007.8 |
| 20260507025458 | 57 | 32 | 0.9 | 7.0 | 0.00 | 0.04 | 0.04 | 98 | 1007.8 |
| 20260507025402 | 57 | 6 | 0.0 | 7.0 | 0.00 | 0.04 | 0.04 | 98 | 1007.9 |
| 20260507025306 | 57 | 6 | 0.9 | 7.0 | 0.00 | 0.04 | 0.04 | 98 | 1007.9 |
| 20260507025209 | 57 | 74 | 0.9 | 7.0 | 0.00 | 0.04 | 0.04 | 98 | 1007.9 |
| 20260507025113 | 57 | 57 | 0.9 | 7.0 | 0.00 | 0.04 | 0.04 | 98 | 1007.9 |
| 20260507024956 | 57 | 44 | 2.6 | 7.0 | 0.00 | 0.04 | 0.04 | 98 | 1007.9 |
| 20260507024902 | 57 | 25 | 1.7 | 7.0 | 0.00 | 0.04 | 0.04 | 98 | 1007.9 |
| 20260507024806 | 57 | 41 | 0.9 | 5.2 | 0.00 | 0.04 | 0.04 | 98 | 1007.9 |
| 20260507024730 | 57 | 25 | 0.9 | 5.2 | 0.00 | 0.04 | 0.04 | 98 | 1007.8 |
| 20260507024613 | 57 | 46 | 1.7 | 5.2 | 0.00 | 0.04 | 0.04 | 98 | 1007.8 |
| 20260507024455 | 57 | 41 | 0.9 | 5.2 | 0.00 | 0.04 | 0.04 | 98 | 1007.8 |
| 20260507024359 | 57 | 42 | 0.9 | 5.2 | 0.00 | 0.04 | 0.04 | 98 | 1007.8 |
| 20260507024302 | 57 | 50 | 2.6 | 5.2 | 0.00 | 0.04 | 0.04 | 98 | 1007.8 |
| 20260507024210 | 57 | 65 | 1.7 | 5.2 | 0.00 | 0.04 | 0.04 | 98 | 1007.8 |
| 20260507024114 | 57 | 27 | 0.9 | 5.2 | 0.00 | 0.04 | 0.04 | 98 | 1007.7 |
| 20260507023955 | 57 | 52 | 0.0 | 5.2 | 0.00 | 0.04 | 0.04 | 98 | 1007.8 |
| 20260507023859 | 57 | 53 | 0.9 | 5.2 | 0.00 | 0.04 | 0.04 | 98 | 1007.8 |
| 20260507023803 | 57 | 36 | 1.7 | 5.2 | 0.00 | 0.04 | 0.04 | 98 | 1007.7 |
| 20260507023706 | 57 | 37 | 0.9 | 5.2 | 0.00 | 0.04 | 0.04 | 98 | 1007.8 |
| 20260507023615 | 57 | 30 | 0.0 | 2.6 | 0.00 | 0.04 | 0.04 | 98 | 1007.9 |
| 20260507023457 | 57 | 60 | 0.0 | 4.3 | 0.00 | 0.04 | 0.04 | 98 | 1007.9 |
| 20260507023421 | 57 | 59 | 0.0 | 4.3 | 0.00 | 0.04 | 0.04 | 98 | 1007.9 |
| 20260507023303 | 57 | 47 | 0.0 | 4.3 | 0.00 | 0.04 | 0.04 | 98 | 1007.9 |
| 20260507023228 | 57 | 47 | 0.0 | 4.3 | 0.00 | 0.04 | 0.04 | 98 | 1008.0 |
| 20260507023131 | 57 | 47 | 0.0 | 4.3 | 0.00 | 0.04 | 0.04 | 98 | 1008.0 |
| 20260507023012 | 57 | 47 | 0.0 | 4.3 | 0.00 | 0.04 | 0.04 | 98 | 1007.9 |
| 20260507022900 | 57 | 37 | 0.9 | 4.3 | 0.00 | 0.04 | 0.04 | 98 | 1008.0 |
| 20260507022803 | 57 | 37 | 1.7 | 4.3 | 0.00 | 0.04 | 0.04 | 98 | 1008.0 |
| 20260507022707 | 56 | 347 | 0.9 | 4.3 | 0.00 | 0.04 | 0.04 | 98 | 1008.0 |
| 20260507022611 | 56 | 25 | 0.0 | 2.6 | 0.00 | 0.04 | 0.04 | 98 | 1007.9 |
| 20260507022514 | 56 | 29 | 0.0 | 4.3 | 0.00 | 0.04 | 0.04 | 98 | 1008.0 |
| 20260507022357 | 56 | 65 | 0.9 | 4.3 | 0.00 | 0.04 | 0.04 | 98 | 1007.9 |
| 20260507022306 | 56 | 71 | 0.9 | 4.3 | 0.00 | 0.04 | 0.04 | 98 | 1008.0 |
| 20260507022208 | 56 | 23 | 0.9 | 4.3 | 0.00 | 0.04 | 0.04 | 98 | 1008.0 |
| 20260507022112 | 56 | 82 | 0.9 | 4.3 | 0.00 | 0.04 | 0.04 | 98 | 1008.0 |
| 20260507022035 | 56 | 37 | 0.9 | 4.3 | 0.00 | 0.04 | 0.04 | 98 | 1008.0 |
| 20260507021857 | 56 | 39 | 0.9 | 5.2 | 0.00 | 0.04 | 0.04 | 98 | 1008.0 |
| 20260507021821 | 56 | 56 | 0.9 | 5.2 | 0.00 | 0.04 | 0.04 | 98 | 1008.0 |
| 20260507021703 | 56 | 58 | 0.0 | 5.2 | 0.00 | 0.04 | 0.04 | 98 | 1008.0 |
| 20260507021611 | 56 | 63 | 0.0 | 5.2 | 0.00 | 0.04 | 0.04 | 98 | 1008.0 |
| 20260507021513 | 56 | 62 | 0.0 | 5.2 | 0.00 | 0.04 | 0.04 | 98 | 1007.9 |
| 20260507021356 | 56 | 65 | 0.0 | 5.2 | 0.00 | 0.04 | 0.04 | 98 | 1007.9 |
| 20260507021300 | 56 | 44 | 0.9 | 5.2 | 0.00 | 0.04 | 0.04 | 98 | 1007.9 |
| 20260507021203 | 56 | 42 | 0.9 | 5.2 | 0.00 | 0.04 | 0.04 | 98 | 1007.9 |
| 20260507021127 | 56 | 51 | 0.9 | 5.2 | 0.00 | 0.04 | 0.04 | 98 | 1008.0 |
| 20260507021013 | 56 | 60 | 0.9 | 5.2 | 0.00 | 0.04 | 0.04 | 98 | 1008.0 |
| 20260507020856 | 56 | 39 | 0.9 | 4.3 | 0.00 | 0.04 | 0.04 | 98 | 1007.9 |
| 20260507020820 | 56 | 345 | 0.0 | 3.5 | 0.00 | 0.04 | 0.04 | 98 | 1007.9 |
| 20260507020702 | 56 | 59 | 0.0 | 4.3 | 0.00 | 0.04 | 0.04 | 98 | 1008.0 |
| 20260507020607 | 56 | 72 | 0.0 | 4.3 | 0.00 | 0.04 | 0.04 | 98 | 1007.9 |
| 20260507020509 | 56 | 40 | 0.9 | 4.3 | 0.00 | 0.04 | 0.04 | 98 | 1007.8 |
| 20260507020356 | 56 | 3 | 0.9 | 4.3 | 0.00 | 0.04 | 0.04 | 98 | 1007.8 |
| 20260507020300 | 56 | 29 | 0.0 | 4.3 | 0.00 | 0.04 | 0.04 | 98 | 1007.9 |
| 20260507020204 | 56 | 33 | 0.0 | 5.2 | 0.00 | 0.04 | 0.04 | 98 | 1007.9 |
| 20260507020139 | 56 | 33 | 0.0 | 5.2 | 0.00 | 0.04 | 0.04 | 98 | 1007.8 |
| 20260507020003 | 56 | 33 | 0.9 | 5.2 | 0.00 | 0.04 | 0.04 | 98 | 1007.9 |
| 20260507015906 | 56 | 39 | 1.7 | 5.2 | 0.00 | 0.04 | 0.04 | 98 | 1007.9 |
| 20260507015810 | 56 | 15 | 0.9 | 5.2 | 0.00 | 0.04 | 0.04 | 98 | 1008.0 |
| 20260507015657 | 56 | 21 | 0.0 | 5.2 | 0.00 | 0.04 | 0.04 | 98 | 1008.0 |
| 20260507015601 | 56 | 71 | 0.9 | 5.2 | 0.00 | 0.04 | 0.04 | 98 | 1008.0 |
| 20260507015503 | 56 | 72 | 1.7 | 5.2 | 0.00 | 0.04 | 0.04 | 98 | 1007.9 |
| 20260507015407 | 56 | 20 | 2.6 | 5.2 | 0.00 | 0.04 | 0.04 | 98 | 1007.9 |
| 20260507015310 | 56 | 75 | 2.6 | 5.2 | 0.00 | 0.04 | 0.04 | 98 | 1007.9 |
| 20260507015214 | 56 | 60 | 0.9 | 6.1 | 0.00 | 0.04 | 0.04 | 98 | 1007.9 |
| 20260507015102 | 56 | 47 | 0.9 | 5.2 | 0.00 | 0.04 | 0.04 | 98 | 1008.0 |
| 20260507015025 | 56 | 47 | 2.6 | 5.2 | 0.00 | 0.04 | 0.04 | 98 | 1008.0 |
| 20260507014907 | 56 | 333 | 1.7 | 6.1 | 0.00 | 0.04 | 0.04 | 98 | 1007.9 |
| 20260507014811 | 56 | 9 | 1.7 | 5.2 | 0.00 | 0.04 | 0.04 | 98 | 1007.9 |
| 20260507014714 | 56 | 53 | 1.7 | 6.1 | 0.00 | 0.04 | 0.04 | 98 | 1008.0 |
| 20260507014557 | 56 | 25 | 0.9 | 4.3 | 0.00 | 0.04 | 0.04 | 98 | 1008.0 |
| 20260507014504 | 56 | 57 | 0.0 | 4.3 | 0.00 | 0.04 | 0.04 | 98 | 1008.0 |
| 20260507014407 | 56 | 46 | 0.0 | 5.2 | 0.00 | 0.04 | 0.04 | 98 | 1008.1 |
| 20260507014310 | 56 | 46 | 0.9 | 5.2 | 0.00 | 0.04 | 0.04 | 98 | 1008.1 |
| 20260507014213 | 56 | 40 | 0.9 | 8.7 | 0.00 | 0.04 | 0.04 | 98 | 1008.1 |
| 20260507014056 | 56 | 32 | 0.9 | 8.7 | 0.00 | 0.04 | 0.04 | 98 | 1008.1 |
| 20260507013958 | 56 | 53 | 0.9 | 8.7 | 0.00 | 0.04 | 0.04 | 98 | 1008.0 |
| 20260507013906 | 56 | 58 | 0.9 | 8.7 | 0.00 | 0.04 | 0.04 | 98 | 1008.0 |
| 20260507013810 | 56 | 33 | 0.9 | 8.7 | 0.00 | 0.04 | 0.04 | 98 | 1008.0 |
| 20260507013713 | 56 | 39 | 2.6 | 8.7 | 0.00 | 0.04 | 0.04 | 98 | 1008.0 |
| 20260507013557 | 56 | 4 | 1.7 | 8.7 | 0.00 | 0.04 | 0.04 | 98 | 1008.1 |
| 20260507013459 | 56 | 358 | 1.7 | 8.7 | 0.00 | 0.04 | 0.04 | 98 | 1008.1 |
| 20260507013423 | 56 | 22 | 1.7 | 8.7 | 0.00 | 0.04 | 0.04 | 98 | 1008.1 |
| 20260507013305 | 56 | 51 | 0.0 | 2.6 | 0.00 | 0.04 | 0.04 | 98 | 1008.1 |
| 20260507013213 | 56 | 51 | 0.9 | 2.6 | 0.00 | 0.04 | 0.04 | 98 | 1008.1 |
| 20260507013056 | 56 | 358 | 0.0 | 2.6 | 0.00 | 0.04 | 0.04 | 98 | 1008.1 |
| 20260507012958 | 56 | 37 | 0.9 | 2.6 | 0.00 | 0.04 | 0.04 | 98 | 1008.2 |
| 20260507012902 | 56 | 25 | 0.9 | 2.6 | 0.00 | 0.04 | 0.04 | 98 | 1008.2 |
| 20260507012826 | 56 | 18 | 0.9 | 2.6 | 0.00 | 0.04 | 0.04 | 98 | 1008.2 |
| 20260507012708 | 56 | 20 | 0.0 | 3.5 | 0.00 | 0.04 | 0.04 | 98 | 1008.2 |
| 20260507012557 | 56 | 39 | 0.0 | 4.3 | 0.00 | 0.04 | 0.04 | 98 | 1008.3 |
| 20260507012459 | 56 | 38 | 0.0 | 6.1 | 0.00 | 0.04 | 0.04 | 98 | 1008.4 |
| 20260507012403 | 56 | 39 | 0.0 | 6.1 | 0.00 | 0.04 | 0.04 | 98 | 1008.4 |
| 20260507012307 | 56 | 39 | 0.0 | 6.1 | 0.00 | 0.04 | 0.04 | 98 | 1008.4 |
| 20260507012209 | 56 | 39 | 0.0 | 6.1 | 0.00 | 0.04 | 0.04 | 98 | 1008.4 |
| 20260507012113 | 56 | 38 | 0.9 | 7.0 | 0.00 | 0.04 | 0.04 | 98 | 1008.4 |
| 20260507012000 | 56 | 345 | 0.9 | 7.0 | 0.00 | 0.04 | 0.04 | 98 | 1008.4 |
| 20260507011903 | 56 | 63 | 0.9 | 7.0 | 0.00 | 0.04 | 0.04 | 98 | 1008.4 |
| 20260507011807 | 56 | 44 | 2.6 | 7.0 | 0.00 | 0.04 | 0.04 | 98 | 1008.4 |
| 20260507011710 | 56 | 48 | 2.6 | 7.0 | 0.00 | 0.04 | 0.04 | 98 | 1008.4 |
| 20260507011613 | 56 | 50 | 1.7 | 7.0 | 0.00 | 0.04 | 0.04 | 98 | 1008.4 |
| 20260507011456 | 56 | 39 | 1.7 | 7.0 | 0.00 | 0.04 | 0.04 | 98 | 1008.4 |
| 20260507011403 | 56 | 40 | 1.7 | 7.0 | 0.00 | 0.04 | 0.04 | 98 | 1008.4 |
| 20260507011327 | 56 | 23 | 1.7 | 7.8 | 0.00 | 0.04 | 0.04 | 98 | 1008.4 |
| 20260507011210 | 56 | 39 | 0.9 | 6.1 | 0.00 | 0.04 | 0.04 | 98 | 1008.4 |
| 20260507011114 | 56 | 5 | 0.9 | 6.1 | 0.00 | 0.04 | 0.04 | 98 | 1008.4 |
| 20260507010956 | 56 | 359 | 1.7 | 6.1 | 0.00 | 0.04 | 0.04 | 98 | 1008.3 |
| 20260507010900 | 56 | 28 | 1.7 | 6.1 | 0.00 | 0.04 | 0.04 | 98 | 1008.4 |
| 20260507010807 | 56 | 12 | 2.6 | 7.0 | 0.00 | 0.04 | 0.04 | 98 | 1008.3 |
| 20260507010711 | 56 | 57 | 1.7 | 6.1 | 0.00 | 0.04 | 0.04 | 98 | 1008.3 |
| 20260507010615 | 56 | 62 | 0.9 | 6.1 | 0.00 | 0.04 | 0.04 | 98 | 1008.3 |
| 20260507010457 | 56 | 37 | 1.7 | 6.1 | 0.00 | 0.04 | 0.04 | 98 | 1008.3 |
| 20260507010400 | 56 | 22 | 1.7 | 6.1 | 0.00 | 0.04 | 0.04 | 98 | 1008.3 |
| 20260507010304 | 56 | 325 | 1.7 | 6.1 | 0.00 | 0.04 | 0.04 | 98 | 1008.3 |
| 20260507010211 | 56 | 18 | 1.7 | 6.1 | 0.00 | 0.04 | 0.04 | 98 | 1008.4 |
| 20260507010127 | 56 | 12 | 1.7 | 6.1 | 0.00 | 0.04 | 0.04 | 98 | 1008.4 |
| 20260507010011 | 56 | 39 | 0.9 | 5.2 | 0.00 | 0.04 | 0.04 | 98 | 1008.4 |
| 20260507005914 | 56 | 69 | 0.9 | 5.2 | 0.00 | 0.04 | 0.04 | 98 | 1008.4 |
| 20260507005757 | 56 | 49 | 0.9 | 5.2 | 0.00 | 0.04 | 0.04 | 98 | 1008.4 |
| 20260507005701 | 56 | 1 | 1.7 | 5.2 | 0.00 | 0.04 | 0.04 | 98 | 1008.4 |
| 20260507005609 | 56 | 350 | 0.9 | 5.2 | 0.00 | 0.04 | 0.04 | 98 | 1008.5 |
| 20260507005512 | 56 | 40 | 0.9 | 5.2 | 0.00 | 0.04 | 0.04 | 98 | 1008.4 |
| 20260507005415 | 56 | 25 | 0.9 | 5.2 | 0.00 | 0.04 | 0.04 | 98 | 1008.4 |
| 20260507005258 | 56 | 21 | 1.7 | 5.2 | 0.00 | 0.04 | 0.04 | 98 | 1008.4 |
| 20260507005201 | 56 | 21 | 0.9 | 5.2 | 0.00 | 0.04 | 0.04 | 98 | 1008.4 |
| 20260507005105 | 56 | 49 | 0.9 | 7.8 | 0.00 | 0.04 | 0.04 | 98 | 1008.5 |
| 20260507005007 | 56 | 21 | 0.9 | 7.8 | 0.00 | 0.04 | 0.04 | 98 | 1008.4 |
| 20260507004855 | 56 | 69 | 0.9 | 7.8 | 0.00 | 0.04 | 0.04 | 98 | 1008.4 |
| 20260507004819 | 56 | 69 | 1.7 | 7.8 | 0.00 | 0.04 | 0.04 | 98 | 1008.5 |
| 20260507004721 | 56 | 56 | 0.9 | 7.8 | 0.00 | 0.04 | 0.04 | 98 | 1008.5 |
| 20260507004604 | 56 | 59 | 0.0 | 7.8 | 0.00 | 0.04 | 0.04 | 98 | 1008.5 |
| 20260507004506 | 56 | 67 | 0.9 | 7.8 | 0.00 | 0.04 | 0.04 | 98 | 1008.5 |
| 20260507004430 | 56 | 67 | 1.7 | 7.8 | 0.00 | 0.04 | 0.04 | 98 | 1008.4 |
| 20260507004333 | 56 | 11 | 1.7 | 8.7 | 0.00 | 0.04 | 0.04 | 98 | 1008.4 |
| 20260507004159 | 56 | 25 | 0.0 | 6.1 | 0.00 | 0.04 | 0.04 | 98 | 1008.4 |
| 20260507004104 | 56 | 359 | 0.9 | 6.1 | 0.00 | 0.04 | 0.04 | 98 | 1008.3 |
| 20260507004006 | 56 | 358 | 0.9 | 7.0 | 0.00 | 0.04 | 0.04 | 98 | 1008.3 |
| 20260507003910 | 56 | 32 | 1.7 | 7.0 | 0.00 | 0.04 | 0.04 | 98 | 1008.3 |
| 20260507003834 | 56 | 50 | 1.7 | 7.8 | 0.00 | 0.04 | 0.04 | 98 | 1008.4 |
| 20260507003656 | 56 | 25 | 1.7 | 7.8 | 0.00 | 0.04 | 0.04 | 98 | 1008.3 |
| 20260507003559 | 56 | 3 | 2.6 | 10.4 | 0.00 | 0.04 | 0.04 | 98 | 1008.3 |
| 20260507003506 | 56 | 3 | 2.6 | 10.4 | 0.00 | 0.04 | 0.04 | 98 | 1008.3 |
| 20260507003409 | 56 | 23 | 1.7 | 10.4 | 0.00 | 0.04 | 0.04 | 98 | 1008.4 |
| 20260507003313 | 56 | 49 | 1.7 | 10.4 | 0.00 | 0.04 | 0.04 | 98 | 1008.3 |
| 20260507003156 | 56 | 331 | 0.9 | 10.4 | 0.00 | 0.04 | 0.04 | 98 | 1008.4 |
| 20260507003101 | 56 | 53 | 1.7 | 10.4 | 0.00 | 0.04 | 0.04 | 98 | 1008.3 |
| 20260507003004 | 56 | 33 | 2.6 | 10.4 | 0.00 | 0.04 | 0.04 | 98 | 1008.3 |
| 20260507002911 | 56 | 21 | 3.5 | 10.4 | 0.00 | 0.04 | 0.04 | 98 | 1008.2 |
| 20260507002754 | 56 | 359 | 3.5 | 9.6 | 0.00 | 0.04 | 0.04 | 98 | 1008.2 |
| 20260507002657 | 56 | 8 | 1.7 | 7.8 | 0.00 | 0.04 | 0.04 | 98 | 1008.2 |
| 20260507002601 | 56 | 49 | 2.6 | 7.8 | 0.00 | 0.04 | 0.04 | 98 | 1008.1 |
| 20260507002504 | 56 | 23 | 2.6 | 7.8 | 0.00 | 0.04 | 0.04 | 98 | 1008.1 |
| 20260507002427 | 56 | 347 | 1.7 | 7.8 | 0.00 | 0.04 | 0.04 | 98 | 1008.1 |
| 20260507002314 | 56 | 5 | 2.6 | 7.8 | 0.00 | 0.04 | 0.04 | 98 | 1008.1 |
| 20260507002158 | 56 | 12 | 2.6 | 8.7 | 0.00 | 0.04 | 0.04 | 98 | 1008.2 |
| 20260507002102 | 56 | 34 | 2.6 | 7.0 | 0.00 | 0.04 | 0.04 | 98 | 1008.2 |
| 20260507002004 | 56 | 36 | 1.7 | 7.0 | 0.00 | 0.04 | 0.04 | 98 | 1008.2 |
| 20260507001908 | 56 | 37 | 1.7 | 8.7 | 0.00 | 0.04 | 0.04 | 98 | 1008.2 |
| 20260507001812 | 56 | 16 | 1.7 | 8.7 | 0.00 | 0.04 | 0.04 | 98 | 1008.2 |
| 20260507001658 | 56 | 69 | 0.9 | 8.7 | 0.00 | 0.04 | 0.04 | 98 | 1008.3 |
| 20260507001602 | 56 | 25 | 0.9 | 8.7 | 0.00 | 0.04 | 0.04 | 98 | 1008.2 |
| 20260507001504 | 56 | 6 | 0.0 | 8.7 | 0.00 | 0.04 | 0.04 | 98 | 1008.3 |
| 20260507001408 | 56 | 28 | 1.7 | 8.7 | 0.00 | 0.04 | 0.04 | 98 | 1008.2 |
| 20260507001332 | 56 | 56 | 1.7 | 8.7 | 0.00 | 0.04 | 0.04 | 98 | 1008.3 |
| 20260507001154 | 56 | 341 | 1.7 | 8.7 | 0.00 | 0.04 | 0.04 | 98 | 1008.3 |
| 20260507001102 | 56 | 39 | 3.5 | 8.7 | 0.00 | 0.04 | 0.04 | 98 | 1008.3 |
| 20260507001004 | 56 | 30 | 1.7 | 7.0 | 0.00 | 0.04 | 0.04 | 98 | 1008.2 |
| 20260507000908 | 56 | 57 | 0.0 | 7.0 | 0.00 | 0.04 | 0.04 | 98 | 1008.3 |
| 20260507000811 | 56 | 56 | 0.0 | 7.0 | 0.00 | 0.04 | 0.04 | 98 | 1008.2 |
| 20260507000654 | 56 | 58 | 0.9 | 7.0 | 0.00 | 0.04 | 0.04 | 98 | 1008.3 |
| 20260507000558 | 56 | 56 | 2.6 | 7.0 | 0.00 | 0.04 | 0.04 | 98 | 1008.3 |
| 20260507000505 | 56 | 11 | 2.6 | 7.0 | 0.00 | 0.04 | 0.04 | 98 | 1008.2 |
| 20260507000408 | 56 | 25 | 2.6 | 7.0 | 0.00 | 0.04 | 0.04 | 98 | 1008.2 |
| 20260507000314 | 56 | 21 | 1.7 | 9.6 | 0.00 | 0.04 | 0.04 | 98 | 1008.2 |
| 20260507000215 | 56 | 32 | 1.7 | 9.6 | 0.00 | 0.04 | 0.04 | 98 | 1008.2 |
| 20260507000151 | 56 | 47 | 1.7 | 9.6 | 0.00 | 0.04 | 0.04 | 98 | 1008.2 |
| 20260506235954 | 55 | 337 | 0.9 | 9.6 | 0.00 | 0.04 | 0.04 | 98 | 1008.2 |
| 20260506235858 | 56 | 359 | 1.7 | 9.6 | 0.00 | 0.04 | 0.04 | 98 | 1008.2 |
| 20260506235826 | 55 | 44 | 1.7 | 9.6 | 0.00 | 0.04 | 0.04 | 98 | 1008.1 |
| 20260506235728 | 56 | 14 | 1.7 | 9.6 | 0.00 | 0.04 | 0.04 | 98 | 1008.2 |
| 20260506235631 | 55 | 25 | 3.5 | 9.6 | 0.00 | 0.04 | 0.04 | 98 | 1008.2 |
| 20260506235513 | 56 | 1 | 2.6 | 10.4 | 0.00 | 0.04 | 0.04 | 98 | 1008.1 |
| 20260506235356 | 55 | 51 | 1.7 | 7.0 | 0.00 | 0.04 | 0.04 | 98 | 1008.1 |
| 20260506235259 | 56 | 49 | 1.7 | 9.6 | 0.00 | 0.04 | 0.04 | 98 | 1008.1 |
| 20260506235223 | 56 | 72 | 0.9 | 9.6 | 0.00 | 0.04 | 0.04 | 98 | 1008.2 |
| 20260506235126 | 56 | 46 | 1.7 | 9.6 | 0.00 | 0.04 | 0.04 | 98 | 1008.1 |
| 20260506235011 | 55 | 60 | 1.7 | 9.6 | 0.00 | 0.04 | 0.04 | 98 | 1008.1 |
| 20260506234855 | 55 | 63 | 0.9 | 9.6 | 0.00 | 0.04 | 0.04 | 98 | 1008.2 |
| 20260506234758 | 55 | 3 | 2.6 | 9.6 | 0.00 | 0.04 | 0.04 | 98 | 1008.0 |
| 20260506234702 | 55 | 6 | 3.5 | 9.6 | 0.00 | 0.04 | 0.04 | 98 | 1008.1 |
| 20260506234605 | 55 | 4 | 4.3 | 9.6 | 0.01 | 0.04 | 0.04 | 98 | 1008.0 |
| 20260506234508 | 56 | 1 | 3.5 | 10.4 | 0.01 | 0.04 | 0.04 | 98 | 1008.0 |
| 20260506234355 | 56 | 13 | 3.5 | 8.7 | 0.01 | 0.04 | 0.04 | 98 | 1008.0 |
| 20260506234258 | 56 | 42 | 3.5 | 8.7 | 0.01 | 0.04 | 0.04 | 98 | 1008.0 |
| 20260506234202 | 56 | 31 | 1.7 | 8.7 | 0.01 | 0.04 | 0.04 | 98 | 1008.1 |
| 20260506234106 | 56 | 23 | 0.9 | 9.6 | 0.01 | 0.04 | 0.04 | 98 | 1008.0 |
| 20260506234008 | 56 | 46 | 1.7 | 9.6 | 0.01 | 0.04 | 0.04 | 98 | 1008.0 |
| 20260506233931 | 56 | 27 | 3.5 | 9.6 | 0.01 | 0.04 | 0.04 | 98 | 1008.0 |
| 20260506233757 | 56 | 58 | 2.6 | 9.6 | 0.01 | 0.04 | 0.04 | 98 | 1008.0 |
| 20260506233701 | 56 | 316 | 0.9 | 9.6 | 0.01 | 0.04 | 0.04 | 98 | 1008.0 |
| 20260506233605 | 56 | 44 | 0.0 | 9.6 | 0.01 | 0.04 | 0.04 | 98 | 1008.0 |
| 20260506233508 | 56 | 44 | 1.7 | 9.6 | 0.01 | 0.04 | 0.04 | 98 | 1008.0 |
| 20260506233411 | 56 | 12 | 4.3 | 9.6 | 0.01 | 0.04 | 0.04 | 98 | 1008.1 |
| 20260506233314 | 56 | 16 | 3.5 | 10.4 | 0.01 | 0.04 | 0.04 | 98 | 1008.0 |
| 20260506233201 | 56 | 55 | 1.7 | 7.8 | 0.01 | 0.04 | 0.04 | 98 | 1008.0 |
| 20260506233105 | 56 | 11 | 0.9 | 7.8 | 0.01 | 0.04 | 0.04 | 98 | 1008.0 |
| 20260506233007 | 56 | 27 | 0.9 | 7.8 | 0.01 | 0.04 | 0.04 | 98 | 1008.1 |
| 20260506232911 | 56 | 28 | 1.7 | 8.7 | 0.01 | 0.04 | 0.04 | 97 | 1008.0 |
| 20260506232754 | 56 | 47 | 1.7 | 8.7 | 0.01 | 0.04 | 0.04 | 97 | 1008.0 |
| 20260506232657 | 56 | 22 | 1.7 | 8.7 | 0.01 | 0.04 | 0.04 | 97 | 1008.0 |
| 20260506232606 | 56 | 21 | 4.3 | 8.7 | 0.01 | 0.04 | 0.04 | 97 | 1008.0 |
| 20260506232509 | 56 | 9 | 3.5 | 10.4 | 0.01 | 0.04 | 0.04 | 97 | 1008.0 |
| 20260506232412 | 56 | 58 | 0.9 | 10.4 | 0.01 | 0.04 | 0.04 | 97 | 1008.1 |
| 20260506232255 | 56 | 56 | 2.6 | 10.4 | 0.01 | 0.04 | 0.04 | 97 | 1008.1 |
| 20260506232159 | 56 | 69 | 3.5 | 10.4 | 0.01 | 0.04 | 0.04 | 97 | 1008.1 |
| 20260506232123 | 56 | 37 | 1.7 | 10.4 | 0.01 | 0.04 | 0.04 | 97 | 1008.0 |
| 20260506232004 | 56 | 28 | 0.9 | 10.4 | 0.01 | 0.04 | 0.04 | 97 | 1008.1 |
| 20260506231912 | 56 | 32 | 0.9 | 10.4 | 0.01 | 0.04 | 0.04 | 97 | 1008.1 |
| 20260506231755 | 56 | 69 | 3.5 | 10.4 | 0.01 | 0.04 | 0.04 | 97 | 1008.1 |
| 20260506231659 | 56 | 19 | 2.6 | 11.3 | 0.01 | 0.04 | 0.04 | 97 | 1008.1 |
| 20260506231603 | 56 | 345 | 0.9 | 7.0 | 0.01 | 0.04 | 0.04 | 97 | 1008.1 |
| 20260506231506 | 56 | 56 | 0.9 | 7.0 | 0.01 | 0.04 | 0.04 | 97 | 1008.1 |
| 20260506231409 | 56 | 60 | 0.9 | 7.0 | 0.01 | 0.04 | 0.04 | 97 | 1008.1 |
| 20260506231316 | 56 | 51 | 0.9 | 7.0 | 0.01 | 0.04 | 0.04 | 97 | 1008.2 |
| 20260506231159 | 56 | 32 | 0.9 | 7.0 | 0.01 | 0.04 | 0.04 | 97 | 1008.1 |
| 20260506231103 | 56 | 28 | 0.9 | 7.8 | 0.01 | 0.04 | 0.04 | 97 | 1008.1 |
| 20260506231005 | 56 | 332 | 1.7 | 9.6 | 0.01 | 0.04 | 0.04 | 97 | 1008.1 |
| 20260506230909 | 56 | 31 | 2.6 | 9.6 | 0.01 | 0.04 | 0.04 | 97 | 1008.1 |
| 20260506230812 | 56 | 10 | 3.5 | 9.6 | 0.01 | 0.04 | 0.04 | 97 | 1008.1 |
| 20260506230700 | 56 | 32 | 2.6 | 9.6 | 0.01 | 0.04 | 0.04 | 97 | 1008.1 |
| 20260506230624 | 56 | 338 | 0.9 | 9.6 | 0.01 | 0.04 | 0.04 | 97 | 1008.2 |
| 20260506230506 | 56 | 353 | 0.0 | 9.6 | 0.01 | 0.04 | 0.04 | 97 | 1008.2 |
| 20260506230430 | 56 | 51 | 0.9 | 9.6 | 0.01 | 0.04 | 0.04 | 97 | 1008.2 |
| 20260506230332 | 56 | 51 | 2.6 | 9.6 | 0.01 | 0.04 | 0.04 | 97 | 1008.2 |
| 20260506230215 | 56 | 345 | 3.5 | 9.6 | 0.01 | 0.04 | 0.04 | 97 | 1008.3 |
| 20260506230150 | 56 | 341 | 2.6 | 9.6 | 0.01 | 0.04 | 0.04 | 97 | 1008.3 |
| 20260506230013 | 56 | 61 | 1.7 | 7.8 | 0.01 | 0.04 | 0.04 | 97 | 1008.3 |
| 20260506225900 | 56 | 15 | 1.7 | 8.7 | 0.01 | 0.04 | 0.04 | 97 | 1008.2 |
| 20260506225804 | 56 | 69 | 0.0 | 6.1 | 0.01 | 0.04 | 0.04 | 97 | 1008.2 |
| 20260506225707 | 56 | 48 | 0.9 | 6.1 | 0.01 | 0.04 | 0.04 | 97 | 1008.2 |
| 20260506225612 | 56 | 48 | 1.7 | 7.0 | 0.01 | 0.04 | 0.04 | 97 | 1008.2 |
| 20260506225514 | 56 | 316 | 0.9 | 7.0 | 0.01 | 0.04 | 0.04 | 97 | 1008.2 |
| 20260506225357 | 57 | 25 | 0.9 | 7.8 | 0.01 | 0.04 | 0.04 | 97 | 1008.2 |
| 20260506225306 | 57 | 9 | 2.6 | 7.8 | 0.01 | 0.04 | 0.04 | 97 | 1008.3 |
| 20260506225208 | 57 | 42 | 1.7 | 7.8 | 0.02 | 0.04 | 0.04 | 97 | 1008.2 |
| 20260506225112 | 57 | 58 | 0.9 | 7.8 | 0.02 | 0.04 | 0.04 | 97 | 1008.2 |
| 20260506225014 | 57 | 51 | 1.7 | 7.8 | 0.02 | 0.04 | 0.04 | 97 | 1008.2 |
| 20260506224857 | 57 | 44 | 1.7 | 7.8 | 0.02 | 0.04 | 0.04 | 97 | 1008.1 |
| 20260506224800 | 57 | 28 | 1.7 | 9.6 | 0.02 | 0.04 | 0.04 | 97 | 1008.1 |
| 20260506224708 | 57 | 25 | 1.7 | 9.6 | 0.02 | 0.04 | 0.04 | 97 | 1008.1 |
| 20260506224612 | 57 | 29 | 2.6 | 9.6 | 0.01 | 0.03 | 0.03 | 97 | 1008.1 |
| 20260506224454 | 57 | 18 | 4.3 | 9.6 | 0.01 | 0.03 | 0.03 | 97 | 1008.1 |
| 20260506224357 | 57 | 28 | 2.6 | 9.6 | 0.01 | 0.03 | 0.03 | 97 | 1008.0 |
| 20260506224301 | 57 | 355 | 1.7 | 9.6 | 0.01 | 0.03 | 0.03 | 97 | 1008.0 |
| 20260506224225 | 57 | 23 | 1.7 | 9.6 | 0.01 | 0.03 | 0.03 | 97 | 1008.0 |
| 20260506224112 | 57 | 32 | 3.5 | 9.6 | 0.01 | 0.03 | 0.03 | 97 | 1008.0 |
| 20260506223954 | 57 | 336 | 4.3 | 9.6 | 0.01 | 0.03 | 0.03 | 97 | 1008.0 |
| 20260506223858 | 57 | 356 | 3.5 | 9.6 | 0.01 | 0.03 | 0.03 | 97 | 1007.9 |
| 20260506223801 | 57 | 40 | 4.3 | 9.6 | 0.01 | 0.03 | 0.03 | 97 | 1007.9 |
| 20260506223705 | 57 | 23 | 2.6 | 9.6 | 0.01 | 0.03 | 0.03 | 97 | 1007.9 |
| 20260506223608 | 57 | 12 | 2.6 | 11.3 | 0.01 | 0.03 | 0.03 | 97 | 1008.0 |
| 20260506223455 | 57 | 25 | 2.6 | 11.3 | 0.01 | 0.03 | 0.03 | 97 | 1008.0 |
| 20260506223359 | 57 | 75 | 1.7 | 11.3 | 0.01 | 0.03 | 0.03 | 97 | 1008.0 |
| 20260506223302 | 57 | 328 | 3.5 | 11.3 | 0.01 | 0.03 | 0.03 | 97 | 1008.0 |
| 20260506223205 | 57 | 30 | 3.5 | 11.3 | 0.01 | 0.03 | 0.03 | 97 | 1008.1 |
| 20260506223110 | 57 | 27 | 0.9 | 11.3 | 0.01 | 0.03 | 0.03 | 97 | 1008.0 |
| 20260506223033 | 57 | 41 | 1.7 | 11.3 | 0.01 | 0.03 | 0.03 | 97 | 1008.0 |
| 20260506222915 | 57 | 42 | 5.2 | 11.3 | 0.01 | 0.03 | 0.03 | 97 | 1008.0 |
| 20260506222801 | 57 | 25 | 4.3 | 12.2 | 0.01 | 0.03 | 0.03 | 97 | 1008.0 |
| 20260506222704 | 57 | 323 | 2.6 | 10.4 | 0.01 | 0.03 | 0.03 | 97 | 1008.0 |
| 20260506222608 | 57 | 342 | 3.5 | 10.4 | 0.01 | 0.03 | 0.03 | 97 | 1008.0 |
| 20260506222531 | 57 | 356 | 4.3 | 10.4 | 0.01 | 0.03 | 0.03 | 97 | 1008.0 |
| 20260506222413 | 57 | 341 | 2.6 | 10.4 | 0.01 | 0.03 | 0.03 | 97 | 1008.1 |
| 20260506222256 | 57 | 39 | 0.9 | 10.4 | 0.01 | 0.03 | 0.03 | 97 | 1008.1 |
| 20260506222204 | 57 | 35 | 1.7 | 10.4 | 0.01 | 0.03 | 0.03 | 97 | 1008.1 |
| 20260506222108 | 57 | 36 | 0.9 | 10.4 | 0.01 | 0.03 | 0.03 | 97 | 1008.2 |
| 20260506222010 | 57 | 16 | 1.7 | 10.4 | 0.01 | 0.03 | 0.03 | 97 | 1008.2 |
| 20260506221914 | 57 | 29 | 1.7 | 10.4 | 0.01 | 0.03 | 0.03 | 97 | 1008.2 |
| 20260506221757 | 57 | 49 | 0.9 | 7.8 | 0.01 | 0.03 | 0.03 | 97 | 1008.2 |
| 20260506221700 | 57 | 67 | 0.9 | 7.8 | 0.01 | 0.03 | 0.03 | 96 | 1008.1 |
| 20260506221625 | 57 | 56 | 1.7 | 7.8 | 0.01 | 0.03 | 0.03 | 96 | 1008.3 |
| 20260506221532 | 57 | 42 | 2.6 | 7.8 | 0.01 | 0.03 | 0.03 | 96 | 1008.2 |
| 20260506221355 | 57 | 15 | 3.5 | 7.8 | 0.01 | 0.03 | 0.03 | 96 | 1008.3 |
| 20260506221258 | 57 | 345 | 2.6 | 7.8 | 0.01 | 0.03 | 0.03 | 96 | 1008.3 |
| 20260506221202 | 57 | 354 | 1.7 | 7.8 | 0.01 | 0.03 | 0.03 | 96 | 1008.4 |
| 20260506221105 | 57 | 58 | 2.6 | 7.8 | 0.01 | 0.03 | 0.03 | 96 | 1008.3 |
| 20260506221007 | 57 | 37 | 2.6 | 7.8 | 0.01 | 0.03 | 0.03 | 96 | 1008.3 |
| 20260506220854 | 57 | 59 | 0.9 | 7.0 | 0.01 | 0.03 | 0.03 | 96 | 1008.3 |
| 20260506220758 | 57 | 23 | 2.6 | 7.0 | 0.01 | 0.03 | 0.03 | 96 | 1008.3 |
| 20260506220702 | 58 | 15 | 2.6 | 7.8 | 0.01 | 0.03 | 0.03 | 96 | 1008.4 |
| 20260506220606 | 58 | 343 | 3.5 | 7.8 | 0.01 | 0.03 | 0.03 | 96 | 1008.4 |
| 20260506220508 | 58 | 40 | 3.5 | 7.8 | 0.01 | 0.03 | 0.03 | 96 | 1008.5 |
| 20260506220431 | 58 | 348 | 1.7 | 7.8 | 0.01 | 0.03 | 0.03 | 96 | 1008.5 |
| 20260506220258 | 58 | 24 | 0.9 | 7.8 | 0.01 | 0.03 | 0.03 | 96 | 1008.4 |
| 20260506220201 | 58 | 32 | 1.7 | 7.8 | 0.01 | 0.03 | 0.03 | 95 | 1008.4 |
| 20260506220116 | 58 | 76 | 1.7 | 9.6 | 0.01 | 0.03 | 0.03 | 95 | 1008.4 |
| 20260506220001 | 58 | 335 | 2.6 | 11.3 | 0.01 | 0.03 | 0.03 | 95 | 1008.4 |
| 20260506215905 | 58 | 38 | 2.6 | 11.3 | 0.01 | 0.03 | 0.03 | 95 | 1008.4 |
| 20260506215808 | 58 | 8 | 0.9 | 11.3 | 0.01 | 0.03 | 0.03 | 95 | 1008.5 |
| 20260506215656 | 58 | 6 | 0.9 | 11.3 | 0.01 | 0.03 | 0.03 | 95 | 1008.4 |
| 20260506215559 | 58 | 6 | 1.7 | 11.3 | 0.01 | 0.03 | 0.03 | 95 | 1008.5 |
| 20260506215502 | 58 | 353 | 3.5 | 11.3 | 0.01 | 0.03 | 0.03 | 95 | 1008.5 |
| 20260506215425 | 58 | 25 | 4.3 | 13.9 | 0.01 | 0.03 | 0.03 | 95 | 1008.6 |
| 20260506215308 | 58 | 61 | 3.5 | 13.9 | 0.00 | 0.02 | 0.02 | 95 | 1008.5 |
| 20260506215212 | 58 | 8 | 3.5 | 13.9 | 0.00 | 0.02 | 0.02 | 95 | 1008.5 |
| 20260506215055 | 58 | 354 | 6.1 | 13.9 | 0.00 | 0.02 | 0.02 | 95 | 1008.5 |
| 20260506215001 | 59 | 335 | 5.2 | 13.9 | 0.01 | 0.02 | 0.02 | 95 | 1008.4 |
| 20260506214905 | 59 | 331 | 1.7 | 13.9 | 0.01 | 0.02 | 0.02 | 95 | 1008.4 |
| 20260506214808 | 59 | 62 | 0.9 | 13.9 | 0.01 | 0.02 | 0.02 | 94 | 1008.3 |
| 20260506214712 | 59 | 25 | 1.7 | 13.9 | 0.01 | 0.02 | 0.02 | 94 | 1008.4 |
| 20260506214556 | 59 | 68 | 4.3 | 13.9 | 0.01 | 0.02 | 0.02 | 94 | 1008.3 |
| 20260506214458 | 59 | 1 | 3.5 | 14.8 | 0.01 | 0.02 | 0.02 | 94 | 1008.4 |
| 20260506214426 | 59 | 33 | 0.9 | 7.8 | 0.01 | 0.02 | 0.02 | 94 | 1008.4 |
| 20260506214309 | 59 | 16 | 0.0 | 10.4 | 0.01 | 0.02 | 0.02 | 94 | 1008.4 |
| 20260506214213 | 59 | 52 | 0.9 | 10.4 | 0.01 | 0.02 | 0.02 | 94 | 1008.5 |
| 20260506214056 | 59 | 34 | 2.6 | 10.4 | 0.01 | 0.02 | 0.02 | 94 | 1008.5 |
| 20260506213958 | 59 | 54 | 2.6 | 10.4 | 0.01 | 0.02 | 0.02 | 93 | 1008.5 |
| 20260506213922 | 59 | 18 | 2.6 | 10.4 | 0.01 | 0.02 | 0.02 | 93 | 1008.5 |
| 20260506213826 | 59 | 79 | 2.6 | 10.4 | 0.01 | 0.02 | 0.02 | 93 | 1008.6 |
| 20260506213712 | 59 | 28 | 2.6 | 10.4 | 0.01 | 0.02 | 0.02 | 93 | 1008.6 |
| 20260506213616 | 59 | 57 | 3.5 | 10.4 | 0.01 | 0.02 | 0.02 | 93 | 1008.6 |
| 20260506213457 | 59 | 32 | 2.6 | 11.3 | 0.01 | 0.02 | 0.02 | 93 | 1008.5 |
| 20260506213401 | 59 | 5 | 0.9 | 7.0 | 0.01 | 0.02 | 0.02 | 93 | 1008.5 |
| 20260506213304 | 59 | 45 | 0.9 | 7.0 | 0.01 | 0.02 | 0.02 | 93 | 1008.6 |
| 20260506213208 | 59 | 25 | 1.7 | 7.0 | 0.01 | 0.02 | 0.02 | 93 | 1008.6 |
| 20260506213056 | 59 | 62 | 1.7 | 7.0 | 0.01 | 0.02 | 0.02 | 93 | 1008.6 |
| 20260506212958 | 59 | 37 | 1.7 | 12.2 | 0.01 | 0.02 | 0.02 | 93 | 1008.7 |
| 20260506212901 | 59 | 34 | 0.9 | 12.2 | 0.01 | 0.02 | 0.02 | 93 | 1008.7 |
| 20260506212805 | 59 | 29 | 0.9 | 12.2 | 0.01 | 0.02 | 0.02 | 93 | 1008.6 |
| 20260506212708 | 59 | 3 | 2.6 | 12.2 | 0.01 | 0.02 | 0.02 | 93 | 1008.6 |
| 20260506212632 | 59 | 39 | 1.7 | 12.2 | 0.01 | 0.02 | 0.02 | 93 | 1008.6 |
| 20260506212514 | 59 | 21 | 0.9 | 12.2 | 0.01 | 0.02 | 0.02 | 93 | 1008.7 |
| 20260506212422 | 59 | 41 | 1.7 | 12.2 | 0.01 | 0.02 | 0.02 | 93 | 1008.7 |
| 20260506212306 | 59 | 348 | 3.5 | 12.2 | 0.01 | 0.02 | 0.02 | 93 | 1008.6 |
| 20260506212207 | 59 | 5 | 3.5 | 12.2 | 0.01 | 0.02 | 0.02 | 93 | 1008.7 |
| 20260506212131 | 59 | 44 | 1.7 | 10.4 | 0.01 | 0.02 | 0.02 | 93 | 1008.7 |
| 20260506212013 | 59 | 49 | 2.6 | 10.4 | 0.01 | 0.02 | 0.02 | 93 | 1008.6 |
| 20260506211916 | 59 | 20 | 3.5 | 10.4 | 0.01 | 0.02 | 0.02 | 93 | 1008.6 |
| 20260506211759 | 59 | 20 | 1.7 | 11.3 | 0.01 | 0.02 | 0.02 | 93 | 1008.7 |
| 20260506211706 | 59 | 54 | 2.6 | 10.4 | 0.01 | 0.02 | 0.02 | 93 | 1008.7 |
| 20260506211630 | 59 | 47 | 5.2 | 10.4 | 0.01 | 0.02 | 0.02 | 93 | 1008.6 |
| 20260506211512 | 59 | 18 | 2.6 | 10.4 | 0.01 | 0.02 | 0.02 | 94 | 1008.7 |
| 20260506211355 | 59 | 32 | 0.9 | 10.4 | 0.01 | 0.02 | 0.02 | 94 | 1008.7 |
| 20260506211319 | 59 | 31 | 4.3 | 10.4 | 0.01 | 0.02 | 0.02 | 94 | 1008.7 |
| 20260506211201 | 59 | 28 | 5.2 | 10.4 | 0.01 | 0.02 | 0.02 | 94 | 1008.7 |
| 20260506211105 | 59 | 9 | 3.5 | 10.4 | 0.01 | 0.02 | 0.02 | 94 | 1008.7 |
| 20260506211011 | 59 | 326 | 2.6 | 10.4 | 0.01 | 0.02 | 0.02 | 94 | 1008.7 |
| 20260506210854 | 59 | 60 | 0.9 | 10.4 | 0.01 | 0.02 | 0.02 | 94 | 1008.7 |
| 20260506210758 | 59 | 5 | 0.0 | 10.4 | 0.02 | 0.02 | 0.02 | 94 | 1008.7 |
| 20260506210701 | 59 | 58 | 0.9 | 10.4 | 0.02 | 0.02 | 0.02 | 94 | 1008.7 |
| 20260506210627 | 59 | 58 | 0.9 | 10.4 | 0.02 | 0.02 | 0.02 | 94 | 1008.7 |
| 20260506210528 | 59 | 18 | 0.9 | 10.4 | 0.02 | 0.02 | 0.02 | 94 | 1008.7 |
| 20260506210410 | 59 | 360 | 1.7 | 10.4 | 0.02 | 0.02 | 0.02 | 94 | 1008.8 |
| 20260506210318 | 59 | 11 | 0.9 | 9.6 | 0.02 | 0.02 | 0.02 | 94 | 1008.8 |
| 20260506210221 | 59 | 58 | 2.6 | 9.6 | 0.02 | 0.02 | 0.02 | 94 | 1008.7 |
| 20260506210115 | 59 | 51 | 3.5 | 9.6 | 0.02 | 0.02 | 0.02 | 94 | 1008.8 |
| 20260506205959 | 59 | 41 | 1.7 | 7.0 | 0.02 | 0.02 | 0.02 | 94 | 1008.7 |
| 20260506205902 | 59 | 51 | 1.7 | 12.2 | 0.02 | 0.02 | 0.02 | 94 | 1008.7 |
| 20260506205806 | 59 | 341 | 2.6 | 12.2 | 0.02 | 0.02 | 0.02 | 94 | 1008.7 |
| 20260506205709 | 59 | 13 | 2.6 | 12.2 | 0.02 | 0.02 | 0.02 | 94 | 1008.7 |
| 20260506205617 | 59 | 20 | 1.7 | 12.2 | 0.02 | 0.02 | 0.02 | 94 | 1008.7 |
| 20260506205458 | 59 | 19 | 1.7 | 12.2 | 0.02 | 0.02 | 0.02 | 94 | 1008.7 |
| 20260506205422 | 59 | 15 | 0.9 | 12.2 | 0.02 | 0.02 | 0.02 | 94 | 1008.7 |
| 20260506205306 | 59 | 47 | 0.9 | 12.2 | 0.02 | 0.02 | 0.02 | 94 | 1008.8 |
| 20260506205228 | 59 | 28 | 3.5 | 12.2 | 0.02 | 0.02 | 0.02 | 94 | 1008.8 |
| 20260506205132 | 59 | 39 | 2.6 | 12.2 | 0.02 | 0.02 | 0.02 | 94 | 1008.8 |
| 20260506205013 | 59 | 354 | 1.7 | 12.2 | 0.01 | 0.01 | 0.01 | 94 | 1008.9 |
| 20260506204916 | 59 | 18 | 2.6 | 12.2 | 0.01 | 0.01 | 0.01 | 94 | 1008.7 |
| 20260506204803 | 59 | 76 | 2.6 | 12.2 | 0.01 | 0.01 | 0.01 | 94 | 1008.7 |
| 20260506204706 | 59 | 25 | 2.6 | 12.2 | 0.01 | 0.01 | 0.01 | 94 | 1008.9 |
| 20260506204611 | 59 | 41 | 3.5 | 12.2 | 0.01 | 0.01 | 0.01 | 93 | 1008.9 |
| 20260506204513 | 59 | 84 | 3.5 | 12.2 | 0.01 | 0.01 | 0.01 | 93 | 1008.9 |
| 20260506204357 | 59 | 41 | 4.3 | 13.0 | 0.01 | 0.01 | 0.01 | 93 | 1008.9 |
| 20260506204300 | 59 | 37 | 2.6 | 10.4 | 0.01 | 0.01 | 0.01 | 93 | 1008.9 |
| 20260506204208 | 59 | 51 | 0.9 | 10.4 | 0.01 | 0.01 | 0.01 | 93 | 1008.8 |
| 20260506204111 | 59 | 28 | 0.9 | 10.4 | 0.01 | 0.01 | 0.01 | 93 | 1008.8 |
| 20260506204014 | 59 | 25 | 0.9 | 10.4 | 0.01 | 0.01 | 0.01 | 93 | 1008.9 |
| 20260506203857 | 59 | 41 | 1.7 | 10.4 | 0.01 | 0.01 | 0.01 | 93 | 1008.9 |
| 20260506203801 | 59 | 43 | 2.6 | 10.4 | 0.01 | 0.01 | 0.01 | 93 | 1008.9 |
| 20260506203704 | 59 | 22 | 4.3 | 10.4 | 0.01 | 0.01 | 0.01 | 92 | 1009.0 |
| 20260506203612 | 59 | 330 | 4.3 | 11.3 | 0.01 | 0.01 | 0.01 | 92 | 1009.0 |
| 20260506203454 | 59 | 27 | 2.6 | 10.4 | 0.01 | 0.01 | 0.01 | 92 | 1009.0 |
| 20260506203357 | 60 | 8 | 1.7 | 10.4 | 0.01 | 0.01 | 0.01 | 92 | 1009.0 |
| 20260506203301 | 60 | 22 | 1.7 | 10.4 | 0.01 | 0.01 | 0.01 | 92 | 1009.0 |
| 20260506203205 | 60 | 70 | 1.7 | 10.4 | 0.01 | 0.01 | 0.01 | 92 | 1009.0 |
| 20260506203128 | 60 | 360 | 1.7 | 10.4 | 0.01 | 0.01 | 0.01 | 92 | 1009.0 |
| 20260506203010 | 60 | 8 | 1.7 | 10.4 | 0.01 | 0.01 | 0.01 | 92 | 1009.1 |
| 20260506202917 | 60 | 72 | 2.6 | 10.4 | 0.01 | 0.01 | 0.01 | 92 | 1009.1 |
| 20260506202800 | 60 | 49 | 1.7 | 8.7 | 0.01 | 0.01 | 0.01 | 92 | 1009.0 |
| 20260506202704 | 60 | 29 | 2.6 | 9.6 | 0.01 | 0.01 | 0.01 | 92 | 1009.0 |
| 20260506202628 | 60 | 354 | 2.6 | 10.4 | 0.01 | 0.01 | 0.01 | 92 | 1009.1 |
| 20260506202510 | 60 | 74 | 0.9 | 10.4 | 0.01 | 0.01 | 0.01 | 92 | 1009.0 |
| 20260506202412 | 60 | 13 | 1.7 | 10.4 | 0.01 | 0.01 | 0.01 | 92 | 1009.0 |
| 20260506202259 | 60 | 84 | 4.3 | 10.4 | 0.01 | 0.01 | 0.01 | 91 | 1009.0 |
| 20260506202203 | 60 | 14 | 3.5 | 10.4 | 0.01 | 0.01 | 0.01 | 92 | 1009.0 |
| 20260506202108 | 60 | 59 | 1.7 | 10.4 | 0.01 | 0.01 | 0.01 | 91 | 1009.0 |
| 20260506202030 | 60 | 51 | 2.6 | 10.4 | 0.01 | 0.01 | 0.01 | 91 | 1009.0 |
| 20260506201913 | 60 | 32 | 2.6 | 10.4 | 0.01 | 0.01 | 0.01 | 91 | 1008.8 |
| 20260506201756 | 60 | 325 | 3.5 | 10.4 | 0.01 | 0.01 | 0.01 | 91 | 1008.8 |
| 20260506201721 | 60 | 12 | 1.7 | 12.2 | 0.01 | 0.01 | 0.01 | 91 | 1008.9 |
| 20260506201609 | 60 | 75 | 1.7 | 12.2 | 0.01 | 0.01 | 0.01 | 91 | 1009.0 |
| 20260506201511 | 60 | 53 | 3.5 | 12.2 | 0.01 | 0.01 | 0.01 | 91 | 1008.9 |
| 20260506201354 | 60 | 35 | 2.6 | 12.2 | 0.01 | 0.01 | 0.01 | 91 | 1008.9 |
| 20260506201258 | 60 | 59 | 1.7 | 12.2 | 0.01 | 0.01 | 0.01 | 91 | 1009.0 |
| 20260506201201 | 60 | 347 | 1.7 | 12.2 | 0.01 | 0.01 | 0.01 | 91 | 1009.0 |
| 20260506201125 | 60 | 44 | 0.9 | 12.2 | 0.01 | 0.01 | 0.01 | 91 | 1009.1 |
| 20260506201007 | 60 | 22 | 2.6 | 12.2 | 0.01 | 0.01 | 0.01 | 91 | 1009.1 |
| 20260506200854 | 60 | 56 | 2.6 | 13.0 | 0.01 | 0.01 | 0.01 | 91 | 1009.1 |
| 20260506200758 | 60 | 342 | 0.9 | 13.9 | 0.00 | 0.00 | 0.00 | 91 | 1009.2 |
| 20260506200700 | 60 | 47 | 2.6 | 13.9 | 0.00 | 0.00 | 0.00 | 91 | 1009.1 |
| 20260506200605 | 60 | 319 | 2.6 | 13.9 | 0.00 | 0.00 | 0.00 | 91 | 1009.1 |
| 20260506200507 | 60 | 69 | 2.6 | 13.9 | 0.00 | 0.00 | 0.00 | 91 | 1009.0 |
| 20260506200431 | 60 | 333 | 4.3 | 13.9 | 0.00 | 0.00 | 0.00 | 90 | 1009.1 |
| 20260506200257 | 60 | 18 | 5.2 | 13.9 | 0.00 | 0.00 | 0.00 | 90 | 1009.1 |
| 20260506200201 | 60 | 353 | 3.5 | 13.9 | 0.00 | 0.00 | 0.00 | 90 | 1009.0 |
| 20260506200115 | 60 | 53 | 3.5 | 13.9 | 0.00 | 0.00 | 0.00 | 91 | 1009.0 |
| 20260506200000 | 60 | 32 | 3.5 | 13.9 | 0.00 | 0.00 | 0.00 | 90 | 1008.9 |
| 20260506195903 | 60 | 4 | 2.6 | 14.8 | 0.00 | 0.00 | 0.00 | 90 | 1009.1 |
| 20260506195807 | 60 | 34 | 3.5 | 11.3 | 0.00 | 0.00 | 0.00 | 90 | 1009.0 |
| 20260506195654 | 60 | 9 | 2.6 | 11.3 | 0.00 | 0.00 | 0.00 | 90 | 1009.0 |
| 20260506195559 | 60 | 359 | 2.6 | 11.3 | 0.00 | 0.00 | 0.00 | 90 | 1008.9 |
| 20260506195502 | 60 | 338 | 4.3 | 11.3 | 0.00 | 0.00 | 0.00 | 90 | 1008.8 |
| 20260506195405 | 60 | 355 | 4.3 | 11.3 | 0.00 | 0.00 | 0.00 | 89 | 1009.0 |
| 20260506195308 | 60 | 4 | 3.5 | 11.3 | 0.00 | 0.00 | 0.00 | 89 | 1009.0 |
| 20260506195212 | 60 | 51 | 2.6 | 11.3 | 0.00 | 0.00 | 0.00 | 89 | 1009.1 |
| 20260506195059 | 61 | 43 | 3.5 | 11.3 | 0.00 | 0.00 | 0.00 | 89 | 1009.0 |
| 20260506195002 | 61 | 6 | 1.7 | 11.3 | 0.00 | 0.00 | 0.00 | 89 | 1009.0 |
| 20260506194905 | 61 | 33 | 1.7 | 11.3 | 0.00 | 0.00 | 0.00 | 89 | 1009.0 |
| 20260506194809 | 61 | 28 | 3.5 | 11.3 | 0.00 | 0.00 | 0.00 | 89 | 1009.0 |
| 20260506194712 | 61 | 28 | 3.5 | 11.3 | 0.00 | 0.00 | 0.00 | 88 | 1009.1 |
| 20260506194636 | 61 | 33 | 3.5 | 11.3 | 0.00 | 0.00 | 0.00 | 88 | 1009.0 |
| 20260506194501 | 61 | 23 | 1.7 | 10.4 | 0.00 | 0.00 | 0.00 | 88 | 1009.1 |
| 20260506194405 | 61 | 51 | 1.7 | 10.4 | 0.00 | 0.00 | 0.00 | 87 | 1009.1 |
| 20260506194328 | 61 | 53 | 0.9 | 10.4 | 0.00 | 0.00 | 0.00 | 87 | 1009.1 |
| 20260506194211 | 61 | 42 | 3.5 | 10.4 | 0.00 | 0.00 | 0.00 | 87 | 1009.1 |
| 20260506194115 | 61 | 345 | 2.6 | 10.4 | 0.00 | 0.00 | 0.00 | 86 | 1009.1 |
| 20260506193957 | 61 | 47 | 2.6 | 10.4 | 0.00 | 0.00 | 0.00 | 86 | 1009.1 |
| 20260506193900 | 61 | 37 | 4.3 | 14.8 | 0.00 | 0.00 | 0.00 | 86 | 1009.1 |
| 20260506193828 | 61 | 333 | 4.3 | 14.8 | 0.00 | 0.00 | 0.00 | 86 | 1009.3 |
| 20260506193711 | 61 | 5 | 2.6 | 14.8 | 0.00 | 0.00 | 0.00 | 86 | 1009.1 |
| 20260506193615 | 61 | 49 | 2.6 | 14.8 | 0.00 | 0.00 | 0.00 | 85 | 1009.2 |
| 20260506193457 | 61 | 50 | 0.9 | 14.8 | 0.00 | 0.00 | 0.00 | 85 | 1009.2 |
| 20260506193420 | 61 | 37 | 0.9 | 14.8 | 0.00 | 0.00 | 0.00 | 85 | 1009.3 |
| 20260506193303 | 62 | 35 | 0.9 | 14.8 | 0.00 | 0.00 | 0.00 | 84 | 1009.3 |
| 20260506193206 | 62 | 42 | 2.6 | 14.8 | 0.00 | 0.00 | 0.00 | 84 | 1009.2 |
| 20260506193115 | 62 | 28 | 4.3 | 14.8 | 0.00 | 0.00 | 0.00 | 84 | 1009.2 |
| 20260506193016 | 62 | 10 | 0.9 | 10.4 | 0.00 | 0.00 | 0.00 | 84 | 1009.2 |